2016 Cux-Wetter.de -Die Nutzung der Wetterdaten nur mit ausdrcklicher Genehmigung
Wetterdaten: Sonntag, 30.04.2017
Datum Zeit Temp. A. Feuchte A. Luftdruck Regen Wind Richtung Richtung Sonnenschein Solar Taupunkt Windchill Windben
30.04.2017 00:00 5,5 C 88 % 1018,1 hPa 0,0 l/m 2,8 km/h (1 Bft) O-NO 60 0 min 0 W/m 3,7 C 5,5 C 8,0 km/h (2 Bft)
30.04.2017 00:03 5,4 C 88 % 1018,1 hPa 0,0 l/m 3,9 km/h (1 Bft) O-NO 74 0 min 0 W/m 3,6 C 5,4 C 12,9 km/h (3 Bft)
30.04.2017 00:06 5,5 C 88 % 1018,1 hPa 0,0 l/m 2,9 km/h (1 Bft) O-NO 58 0 min 0 W/m 3,7 C 5,5 C 6,4 km/h (2 Bft)
30.04.2017 00:09 5,5 C 88 % 1018,1 hPa 0,0 l/m 4,2 km/h (1 Bft) SO 130 0 min 0 W/m 3,7 C 5,5 C 9,7 km/h (2 Bft)
30.04.2017 00:12 5,5 C 88 % 1018,2 hPa 0,0 l/m 1,5 km/h (1 Bft) SO 126 0 min 0 W/m 3,7 C 5,5 C 3,2 km/h (1 Bft)
30.04.2017 00:15 5,4 C 88 % 1018,2 hPa 0,0 l/m 1,0 km/h (0 Bft) O-NO 74 0 min 0 W/m 3,6 C 5,4 C 3,2 km/h (1 Bft)
30.04.2017 00:18 5,5 C 88 % 1018,2 hPa 0,0 l/m 3,0 km/h (1 Bft) O-NO 76 0 min 0 W/m 3,7 C 5,5 C 8,0 km/h (2 Bft)
30.04.2017 00:21 5,5 C 88 % 1018,2 hPa 0,0 l/m 3,1 km/h (1 Bft) O-NO 77 0 min 0 W/m 3,7 C 5,5 C 6,4 km/h (2 Bft)
30.04.2017 00:24 5,6 C 88 % 1018,2 hPa 0,0 l/m 2,2 km/h (1 Bft) NO 38 0 min 0 W/m 3,8 C 5,6 C 6,4 km/h (2 Bft)
30.04.2017 00:27 5,6 C 88 % 1018,1 hPa 0,0 l/m 3,7 km/h (1 Bft) NO 41 0 min 0 W/m 3,8 C 5,6 C 11,3 km/h (2 Bft)
30.04.2017 00:30 5,6 C 88 % 1018,1 hPa 0,0 l/m 3,4 km/h (1 Bft) O-SO 106 0 min 0 W/m 3,8 C 5,6 C 6,4 km/h (2 Bft)
30.04.2017 00:33 5,6 C 88 % 1018,2 hPa 0,0 l/m 3,5 km/h (1 Bft) O 85 0 min 0 W/m 3,8 C 5,6 C 4,8 km/h (1 Bft)
30.04.2017 00:36 5,7 C 88 % 1018,2 hPa 0,0 l/m 2,2 km/h (1 Bft) O 86 0 min 0 W/m 3,9 C 5,7 C 4,8 km/h (1 Bft)
30.04.2017 00:39 5,6 C 88 % 1018,2 hPa 0,0 l/m 4,3 km/h (1 Bft) O 85 0 min 0 W/m 3,8 C 5,6 C 9,7 km/h (2 Bft)
30.04.2017 00:42 5,7 C 89 % 1018,2 hPa 0,0 l/m 3,4 km/h (1 Bft) O-NO 65 0 min 0 W/m 4,0 C 5,7 C 12,9 km/h (3 Bft)
30.04.2017 00:45 5,7 C 89 % 1018,2 hPa 0,0 l/m 3,0 km/h (1 Bft) O-NO 57 0 min 0 W/m 4,0 C 5,7 C 4,8 km/h (1 Bft)
30.04.2017 00:48 5,7 C 89 % 1018,1 hPa 0,0 l/m 3,2 km/h (1 Bft) O-NO 78 0 min 0 W/m 4,0 C 5,7 C 9,7 km/h (2 Bft)
30.04.2017 00:51 5,7 C 89 % 1018,2 hPa 0,0 l/m 4,4 km/h (1 Bft) N 355 0 min 0 W/m 4,0 C 5,7 C 14,5 km/h (3 Bft)
30.04.2017 00:54 5,7 C 89 % 1018,1 hPa 0,0 l/m 3,5 km/h (1 Bft) O-SO 113 0 min 0 W/m 4,0 C 5,7 C 8,0 km/h (2 Bft)
30.04.2017 00:57 5,7 C 89 % 1018,2 hPa 0,0 l/m 2,2 km/h (1 Bft) O-NO 67 0 min 0 W/m 4,0 C 5,7 C 6,4 km/h (2 Bft)
30.04.2017 01:00 5,7 C 89 % 1018,2 hPa 0,0 l/m 3,6 km/h (1 Bft) O 81 0 min 0 W/m 4,0 C 5,7 C 9,7 km/h (2 Bft)
30.04.2017 01:03 5,7 C 89 % 1018,2 hPa 0,0 l/m 2,8 km/h (1 Bft) N 9 0 min 0 W/m 4,0 C 5,7 C 8,0 km/h (2 Bft)
30.04.2017 01:06 5,7 C 89 % 1018,2 hPa 0,0 l/m 2,4 km/h (1 Bft) NO 42 0 min 0 W/m 4,0 C 5,7 C 8,0 km/h (2 Bft)
30.04.2017 01:09 5,7 C 89 % 1018,2 hPa 0,0 l/m 2,9 km/h (1 Bft) N-NW 346 0 min 0 W/m 4,0 C 5,7 C 6,4 km/h (2 Bft)
30.04.2017 01:12 5,6 C 90 % 1018,2 hPa 0,0 l/m 2,7 km/h (1 Bft) O 92 0 min 0 W/m 4,1 C 5,6 C 11,3 km/h (2 Bft)
30.04.2017 01:15 5,7 C 90 % 1018,2 hPa 0,0 l/m 4,1 km/h (1 Bft) O 94 0 min 0 W/m 4,2 C 5,7 C 11,3 km/h (2 Bft)
30.04.2017 01:18 5,7 C 90 % 1018,2 hPa 0,0 l/m 4,7 km/h (1 Bft) O 92 0 min 0 W/m 4,2 C 5,7 C 12,9 km/h (3 Bft)
30.04.2017 01:21 5,8 C 90 % 1018,2 hPa 0,0 l/m 3,3 km/h (1 Bft) NO 47 0 min 0 W/m 4,3 C 5,8 C 9,7 km/h (2 Bft)
30.04.2017 01:24 5,7 C 90 % 1018,2 hPa 0,0 l/m 3,2 km/h (1 Bft) SO 128 0 min 0 W/m 4,2 C 5,7 C 8,0 km/h (2 Bft)
30.04.2017 01:27 5,7 C 90 % 1018,2 hPa 0,0 l/m 3,5 km/h (1 Bft) N-NO 23 0 min 0 W/m 4,2 C 5,7 C 6,4 km/h (2 Bft)
30.04.2017 01:30 5,7 C 90 % 1018,2 hPa 0,0 l/m 1,6 km/h (1 Bft) SO 132 0 min 0 W/m 4,2 C 5,7 C 6,4 km/h (2 Bft)
30.04.2017 01:33 5,6 C 90 % 1018,2 hPa 0,0 l/m 1,5 km/h (1 Bft) O-SO 102 0 min 0 W/m 4,1 C 5,6 C 6,4 km/h (2 Bft)
30.04.2017 01:36 5,6 C 90 % 1018,2 hPa 0,0 l/m 1,7 km/h (1 Bft) O 96 0 min 0 W/m 4,1 C 5,6 C 4,8 km/h (1 Bft)
30.04.2017 01:39 5,6 C 91 % 1018,2 hPa 0,0 l/m 2,7 km/h (1 Bft) S-SO 165 0 min 0 W/m 4,2 C 5,6 C 4,8 km/h (1 Bft)
30.04.2017 01:42 5,6 C 90 % 1018,2 hPa 0,0 l/m 1,1 km/h (1 Bft) S-SO 165 0 min 0 W/m 4,1 C 5,6 C 3,2 km/h (1 Bft)
30.04.2017 01:45 5,6 C 90 % 1018,2 hPa 0,0 l/m 2,5 km/h (1 Bft) O-SO 109 0 min 0 W/m 4,1 C 5,6 C 11,3 km/h (2 Bft)
30.04.2017 01:48 5,4 C 90 % 1018,2 hPa 0,0 l/m 1,9 km/h (1 Bft) SO 146 0 min 0 W/m 3,9 C 5,4 C 9,7 km/h (2 Bft)
30.04.2017 01:51 5,4 C 90 % 1018,2 hPa 0,0 l/m 2,3 km/h (1 Bft) O-SO 116 0 min 0 W/m 3,9 C 5,4 C 9,7 km/h (2 Bft)
30.04.2017 01:54 5,4 C 90 % 1018,3 hPa 0,0 l/m 4,2 km/h (1 Bft) O-SO 121 0 min 0 W/m 3,9 C 5,4 C 11,3 km/h (2 Bft)
30.04.2017 01:57 5,4 C 90 % 1018,3 hPa 0,0 l/m 5,7 km/h (2 Bft) SO 128 0 min 0 W/m 3,9 C 5,4 C 9,7 km/h (2 Bft)
30.04.2017 02:00 5,4 C 90 % 1018,3 hPa 0,0 l/m 3,5 km/h (1 Bft) SO 135 0 min 0 W/m 3,9 C 5,4 C 8,0 km/h (2 Bft)
30.04.2017 02:03 5,3 C 90 % 1018,3 hPa 0,0 l/m 2,7 km/h (1 Bft) SO 142 0 min 0 W/m 3,8 C 5,3 C 6,4 km/h (2 Bft)
30.04.2017 02:06 5,2 C 89 % 1018,3 hPa 0,0 l/m 3,8 km/h (1 Bft) S-SO 148 0 min 0 W/m 3,5 C 5,2 C 6,4 km/h (2 Bft)
30.04.2017 02:09 5,2 C 89 % 1018,3 hPa 0,0 l/m 3,6 km/h (1 Bft) SO 130 0 min 0 W/m 3,5 C 5,2 C 8,0 km/h (2 Bft)
30.04.2017 02:12 5,1 C 89 % 1018,3 hPa 0,0 l/m 2,4 km/h (1 Bft) SO 136 0 min 0 W/m 3,4 C 5,1 C 6,4 km/h (2 Bft)
30.04.2017 02:15 4,9 C 89 % 1018,4 hPa 0,0 l/m 2,1 km/h (1 Bft) SO 137 0 min 0 W/m 3,2 C 4,9 C 4,8 km/h (1 Bft)
30.04.2017 02:18 4,9 C 89 % 1018,4 hPa 0,0 l/m 1,4 km/h (1 Bft) SO 137 0 min 0 W/m 3,2 C 4,9 C 3,2 km/h (1 Bft)
30.04.2017 02:21 4,8 C 89 % 1018,4 hPa 0,0 l/m 2,4 km/h (1 Bft) O-SO 120 0 min 0 W/m 3,1 C 4,8 C 6,4 km/h (2 Bft)
30.04.2017 02:24 4,8 C 89 % 1018,3 hPa 0,0 l/m 3,4 km/h (1 Bft) SO 128 0 min 0 W/m 3,1 C 4,8 C 6,4 km/h (2 Bft)
30.04.2017 02:27 4,7 C 89 % 1018,3 hPa 0,0 l/m 2,6 km/h (1 Bft) SO 132 0 min 0 W/m 3,0 C 4,7 C 4,8 km/h (1 Bft)
30.04.2017 02:30 4,7 C 90 % 1018,3 hPa 0,0 l/m 2,8 km/h (1 Bft) SO 128 0 min 0 W/m 3,2 C 4,7 C 4,8 km/h (1 Bft)
30.04.2017 02:33 4,7 C 90 % 1018,3 hPa 0,0 l/m 2,3 km/h (1 Bft) SO 130 0 min 0 W/m 3,2 C 4,7 C 4,8 km/h (1 Bft)
30.04.2017 02:36 4,6 C 90 % 1018,3 hPa 0,0 l/m 2,2 km/h (1 Bft) SO 130 0 min 0 W/m 3,1 C 4,6 C 4,8 km/h (1 Bft)
30.04.2017 02:39 4,5 C 90 % 1018,3 hPa 0,0 l/m 0,9 km/h (0 Bft) SO 130 0 min 0 W/m 3,0 C 4,5 C 3,2 km/h (1 Bft)
30.04.2017 02:42 4,5 C 90 % 1018,3 hPa 0,0 l/m 2,0 km/h (1 Bft) SO 132 0 min 0 W/m 3,0 C 4,5 C 6,4 km/h (2 Bft)
30.04.2017 02:45 4,5 C 90 % 1018,2 hPa 0,0 l/m 3,1 km/h (1 Bft) SO 137 0 min 0 W/m 3,0 C 4,5 C 8,0 km/h (2 Bft)
30.04.2017 02:48 4,4 C 90 % 1018,2 hPa 0,0 l/m 2,9 km/h (1 Bft) SO 136 0 min 0 W/m 2,9 C 4,4 C 6,4 km/h (2 Bft)
30.04.2017 02:51 4,5 C 90 % 1018,3 hPa 0,0 l/m 2,4 km/h (1 Bft) O 98 0 min 0 W/m 3,0 C 4,5 C 4,8 km/h (1 Bft)
30.04.2017 02:54 4,4 C 90 % 1018,3 hPa 0,0 l/m 0,9 km/h (0 Bft) O 98 0 min 0 W/m 2,9 C 4,4 C 3,2 km/h (1 Bft)
30.04.2017 02:57 4,3 C 90 % 1018,3 hPa 0,0 l/m 2,1 km/h (1 Bft) O 98 0 min 0 W/m 2,8 C 4,3 C 4,8 km/h (1 Bft)
30.04.2017 03:00 4,2 C 90 % 1018,3 hPa 0,0 l/m 0,4 km/h (0 Bft) O 98 0 min 0 W/m 2,7 C 4,2 C 3,2 km/h (1 Bft)
30.04.2017 03:03 4,2 C 90 % 1018,3 hPa 0,0 l/m 2,9 km/h (1 Bft) O-NO 74 0 min 0 W/m 2,7 C 4,2 C 6,4 km/h (2 Bft)
30.04.2017 03:06 4,2 C 91 % 1018,3 hPa 0,0 l/m 2,6 km/h (1 Bft) O 86 0 min 0 W/m 2,9 C 4,2 C 6,4 km/h (2 Bft)
30.04.2017 03:09 4,2 C 91 % 1018,3 hPa 0,0 l/m 2,0 km/h (1 Bft) O 88 0 min 0 W/m 2,9 C 4,2 C 4,8 km/h (1 Bft)
30.04.2017 03:12 4,3 C 91 % 1018,3 hPa 0,0 l/m 1,2 km/h (1 Bft) O 88 0 min 0 W/m 3,0 C 4,3 C 3,2 km/h (1 Bft)
30.04.2017 03:15 4,3 C 91 % 1018,4 hPa 0,0 l/m 1,8 km/h (1 Bft) O 88 0 min 0 W/m 3,0 C 4,3 C 4,8 km/h (1 Bft)
30.04.2017 03:18 4,3 C 91 % 1018,3 hPa 0,0 l/m 0,9 km/h (0 Bft) O 88 0 min 0 W/m 3,0 C 4,3 C 3,2 km/h (1 Bft)
30.04.2017 03:21 4,3 C 91 % 1018,3 hPa 0,0 l/m 1,8 km/h (1 Bft) O-SO 104 0 min 0 W/m 3,0 C 4,3 C 4,8 km/h (1 Bft)
30.04.2017 03:24 4,2 C 91 % 1018,4 hPa 0,0 l/m 0,6 km/h (0 Bft) O-SO 105 0 min 0 W/m 2,9 C 4,2 C 1,6 km/h (1 Bft)
30.04.2017 03:27 4,2 C 91 % 1018,3 hPa 0,0 l/m 1,6 km/h (1 Bft) O-SO 107 0 min 0 W/m 2,9 C 4,2 C 3,2 km/h (1 Bft)
30.04.2017 03:30 4,2 C 91 % 1018,3 hPa 0,0 l/m 1,6 km/h (1 Bft) O-SO 107 0 min 0 W/m 2,9 C 4,2 C 4,8 km/h (1 Bft)
30.04.2017 03:33 4,2 C 91 % 1018,4 hPa 0,0 l/m 2,4 km/h (1 Bft) O 87 0 min 0 W/m 2,9 C 4,2 C 6,4 km/h (2 Bft)
30.04.2017 03:36 4,2 C 91 % 1018,4 hPa 0,0 l/m 1,7 km/h (1 Bft) O 88 0 min 0 W/m 2,9 C 4,2 C 4,8 km/h (1 Bft)
30.04.2017 03:39 4,2 C 91 % 1018,3 hPa 0,0 l/m 2,1 km/h (1 Bft) O 89 0 min 0 W/m 2,9 C 4,2 C 3,2 km/h (1 Bft)
30.04.2017 03:42 4,2 C 91 % 1018,4 hPa 0,0 l/m 2,0 km/h (1 Bft) O-SO 107 0 min 0 W/m 2,9 C 4,2 C 4,8 km/h (1 Bft)
30.04.2017 03:45 4,2 C 92 % 1018,3 hPa 0,0 l/m 1,5 km/h (1 Bft) O-SO 109 0 min 0 W/m 3,0 C 4,2 C 4,8 km/h (1 Bft)
30.04.2017 03:48 4,1 C 92 % 1018,4 hPa 0,0 l/m 0,9 km/h (0 Bft) SO 126 0 min 0 W/m 2,9 C 4,1 C 4,8 km/h (1 Bft)
30.04.2017 03:51 4,0 C 92 % 1018,3 hPa 0,0 l/m 0,5 km/h (0 Bft) SO 126 0 min 0 W/m 2,8 C 4,0 C 1,6 km/h (1 Bft)
30.04.2017 03:54 4,1 C 92 % 1018,4 hPa 0,0 l/m 1,5 km/h (1 Bft) SO 127 0 min 0 W/m 2,9 C 4,1 C 3,2 km/h (1 Bft)
30.04.2017 03:57 4,0 C 92 % 1018,3 hPa 0,0 l/m 0,5 km/h (0 Bft) SO 128 0 min 0 W/m 2,8 C 4,0 C 4,8 km/h (1 Bft)
30.04.2017 04:00 4,0 C 92 % 1018,4 hPa 0,0 l/m 1,0 km/h (0 Bft) O-SO 116 0 min 0 W/m 2,8 C 4,0 C 3,2 km/h (1 Bft)
30.04.2017 04:03 4,1 C 92 % 1018,3 hPa 0,0 l/m 1,4 km/h (1 Bft) O-SO 116 0 min 0 W/m 2,9 C 4,1 C 3,2 km/h (1 Bft)
30.04.2017 04:06 4,1 C 92 % 1018,3 hPa 0,0 l/m 2,1 km/h (1 Bft) O-SO 116 0 min 0 W/m 2,9 C 4,1 C 6,4 km/h (2 Bft)
30.04.2017 04:09 4,1 C 92 % 1018,3 hPa 0,0 l/m 2,3 km/h (1 Bft) O-SO 112 0 min 0 W/m 2,9 C 4,1 C 4,8 km/h (1 Bft)
30.04.2017 04:12 4,1 C 92 % 1018,3 hPa 0,0 l/m 1,7 km/h (1 Bft) O 88 0 min 0 W/m 2,9 C 4,1 C 6,4 km/h (2 Bft)
30.04.2017 04:15 4,0 C 92 % 1018,3 hPa 0,0 l/m 2,5 km/h (1 Bft) O-SO 115 0 min 0 W/m 2,8 C 4,0 C 4,8 km/h (1 Bft)
30.04.2017 04:18 4,0 C 92 % 1018,3 hPa 0,0 l/m 1,2 km/h (1 Bft) O-SO 116 0 min 0 W/m 2,8 C 4,0 C 3,2 km/h (1 Bft)
30.04.2017 04:21 3,9 C 92 % 1018,4 hPa 0,0 l/m 1,5 km/h (1 Bft) O 96 0 min 0 W/m 2,7 C 3,9 C 4,8 km/h (1 Bft)
30.04.2017 04:24 3,9 C 93 % 1018,4 hPa 0,0 l/m 2,2 km/h (1 Bft) O 98 0 min 0 W/m 2,9 C 3,9 C 4,8 km/h (1 Bft)
30.04.2017 04:27 3,9 C 93 % 1018,3 hPa 0,0 l/m 1,4 km/h (1 Bft) O-SO 119 0 min 0 W/m 2,9 C 3,9 C 6,4 km/h (2 Bft)
30.04.2017 04:30 4,0 C 93 % 1018,3 hPa 0,0 l/m 1,9 km/h (1 Bft) SO 132 0 min 0 W/m 3,0 C 4,0 C 6,4 km/h (2 Bft)
30.04.2017 04:33 4,0 C 93 % 1018,3 hPa 0,0 l/m 2,0 km/h (1 Bft) S-SO 151 0 min 0 W/m 3,0 C 4,0 C 6,4 km/h (2 Bft)
30.04.2017 04:36 3,9 C 93 % 1018,3 hPa 0,0 l/m 1,7 km/h (1 Bft) SO 128 0 min 0 W/m 2,9 C 3,9 C 4,8 km/h (1 Bft)
30.04.2017 04:39 3,9 C 93 % 1018,3 hPa 0,0 l/m 1,8 km/h (1 Bft) O 80 0 min 0 W/m 2,9 C 3,9 C 6,4 km/h (2 Bft)
30.04.2017 04:42 3,9 C 93 % 1018,3 hPa 0,0 l/m 2,4 km/h (1 Bft) O-SO 123 0 min 0 W/m 2,9 C 3,9 C 6,4 km/h (2 Bft)
30.04.2017 04:45 3,9 C 93 % 1018,3 hPa 0,0 l/m 2,3 km/h (1 Bft) O-SO 112 0 min 0 W/m 2,9 C 3,9 C 4,8 km/h (1 Bft)
30.04.2017 04:48 3,9 C 93 % 1018,3 hPa 0,0 l/m 3,6 km/h (1 Bft) SO 143 0 min 0 W/m 2,9 C 3,9 C 8,0 km/h (2 Bft)
30.04.2017 04:51 3,9 C 93 % 1018,3 hPa 0,0 l/m 3,0 km/h (1 Bft) O-SO 121 0 min 0 W/m 2,9 C 3,9 C 8,0 km/h (2 Bft)
30.04.2017 04:54 4,0 C 93 % 1018,3 hPa 0,0 l/m 3,0 km/h (1 Bft) O-SO 108 0 min 0 W/m 3,0 C 4,0 C 8,0 km/h (2 Bft)
30.04.2017 04:57 3,9 C 93 % 1018,3 hPa 0,0 l/m 1,3 km/h (1 Bft) O-SO 106 0 min 0 W/m 2,9 C 3,9 C 3,2 km/h (1 Bft)
30.04.2017 05:00 3,9 C 93 % 1018,4 hPa 0,0 l/m 1,3 km/h (1 Bft) O-NO 76 0 min 0 W/m 2,9 C 3,9 C 4,8 km/h (1 Bft)
30.04.2017 05:03 3,8 C 93 % 1018,3 hPa 0,0 l/m 4,0 km/h (1 Bft) O 88 0 min 0 W/m 2,8 C 3,8 C 11,3 km/h (2 Bft)
30.04.2017 05:06 3,8 C 93 % 1018,3 hPa 0,0 l/m 2,5 km/h (1 Bft) O-NO 75 0 min 0 W/m 2,8 C 3,8 C 8,0 km/h (2 Bft)
30.04.2017 05:09 3,8 C 93 % 1018,4 hPa 0,0 l/m 1,9 km/h (1 Bft) O-SO 116 0 min 0 W/m 2,8 C 3,8 C 6,4 km/h (2 Bft)
30.04.2017 05:12 3,8 C 93 % 1018,3 hPa 0,0 l/m 4,4 km/h (1 Bft) O 85 0 min 0 W/m 2,8 C 3,8 C 9,7 km/h (2 Bft)
30.04.2017 05:15 3,8 C 93 % 1018,3 hPa 0,0 l/m 1,8 km/h (1 Bft) O-NO 76 0 min 0 W/m 2,8 C 3,8 C 4,8 km/h (1 Bft)
30.04.2017 05:18 3,8 C 93 % 1018,3 hPa 0,0 l/m 2,6 km/h (1 Bft) O-SO 112 0 min 0 W/m 2,8 C 3,8 C 4,8 km/h (1 Bft)
30.04.2017 05:21 3,8 C 93 % 1018,4 hPa 0,0 l/m 1,9 km/h (1 Bft) O-NO 78 0 min 0 W/m 2,8 C 3,8 C 6,4 km/h (2 Bft)
30.04.2017 05:24 3,7 C 93 % 1018,4 hPa 0,0 l/m 2,6 km/h (1 Bft) O 94 0 min 0 W/m 2,7 C 3,7 C 4,8 km/h (1 Bft)
30.04.2017 05:27 3,7 C 93 % 1018,4 hPa 0,0 l/m 2,9 km/h (1 Bft) O 90 0 min 0 W/m 2,7 C 3,7 C 8,0 km/h (2 Bft)
30.04.2017 05:30 3,6 C 93 % 1018,4 hPa 0,0 l/m 2,5 km/h (1 Bft) O-SO 119 0 min 0 W/m 2,6 C 3,6 C 9,7 km/h (2 Bft)
30.04.2017 05:33 3,6 C 94 % 1018,3 hPa 0,0 l/m 1,3 km/h (1 Bft) O-SO 116 0 min 0 W/m 2,7 C 3,6 C 3,2 km/h (1 Bft)
30.04.2017 05:36 3,6 C 94 % 1018,4 hPa 0,0 l/m 2,4 km/h (1 Bft) O-NO 67 0 min 0 W/m 2,7 C 3,6 C 6,4 km/h (2 Bft)
30.04.2017 05:39 3,6 C 94 % 1018,3 hPa 0,0 l/m 2,0 km/h (1 Bft) O-NO 74 0 min 0 W/m 2,7 C 3,6 C 4,8 km/h (1 Bft)
30.04.2017 05:42 3,7 C 94 % 1018,3 hPa 0,0 l/m 1,0 km/h (0 Bft) O-NO 74 0 min 0 W/m 2,8 C 3,7 C 4,8 km/h (1 Bft)
30.04.2017 05:45 3,6 C 94 % 1018,4 hPa 0,0 l/m 2,5 km/h (1 Bft) O 96 0 min 0 W/m 2,7 C 3,6 C 8,0 km/h (2 Bft)
30.04.2017 05:48 3,7 C 94 % 1018,3 hPa 0,0 l/m 2,3 km/h (1 Bft) O-SO 104 0 min 0 W/m 2,8 C 3,7 C 6,4 km/h (2 Bft)
30.04.2017 05:51 3,7 C 94 % 1018,4 hPa 0,0 l/m 3,4 km/h (1 Bft) S-SO 160 0 min 0 W/m 2,8 C 3,7 C 9,7 km/h (2 Bft)
30.04.2017 05:54 3,7 C 94 % 1018,3 hPa 0,0 l/m 2,3 km/h (1 Bft) SO 141 0 min 0 W/m 2,8 C 3,7 C 6,4 km/h (2 Bft)
30.04.2017 05:57 3,7 C 94 % 1018,4 hPa 0,0 l/m 1,8 km/h (1 Bft) SO 132 0 min 0 W/m 2,8 C 3,7 C 4,8 km/h (1 Bft)
30.04.2017 06:00 3,6 C 94 % 1018,4 hPa 0,0 l/m 2,2 km/h (1 Bft) SO 124 0 min 5 W/m 2,7 C 3,6 C 6,4 km/h (2 Bft)
30.04.2017 06:03 3,6 C 94 % 1018,4 hPa 0,0 l/m 3,4 km/h (1 Bft) O-SO 119 0 min 5 W/m 2,7 C 3,6 C 6,4 km/h (2 Bft)
30.04.2017 06:06 3,6 C 94 % 1018,4 hPa 0,0 l/m 1,2 km/h (1 Bft) O 87 0 min 7 W/m 2,7 C 3,6 C 4,8 km/h (1 Bft)
30.04.2017 06:09 3,6 C 94 % 1018,4 hPa 0,0 l/m 2,4 km/h (1 Bft) O-SO 123 0 min 7 W/m 2,7 C 3,6 C 8,0 km/h (2 Bft)
30.04.2017 06:12 3,6 C 94 % 1018,5 hPa 0,0 l/m 1,8 km/h (1 Bft) SO 140 0 min 7 W/m 2,7 C 3,6 C 4,8 km/h (1 Bft)
30.04.2017 06:15 3,6 C 94 % 1018,5 hPa 0,0 l/m 3,1 km/h (1 Bft) N-NO 31 0 min 9 W/m 2,7 C 3,6 C 6,4 km/h (2 Bft)
30.04.2017 06:18 3,6 C 94 % 1018,5 hPa 0,0 l/m 3,0 km/h (1 Bft) O-SO 103 0 min 9 W/m 2,7 C 3,6 C 11,3 km/h (2 Bft)
30.04.2017 06:21 3,7 C 94 % 1018,5 hPa 0,0 l/m 5,0 km/h (1 Bft) O 82 0 min 11 W/m 2,8 C 3,7 C 9,7 km/h (2 Bft)
30.04.2017 06:24 3,8 C 94 % 1018,5 hPa 0,0 l/m 3,8 km/h (1 Bft) O 80 0 min 11 W/m 2,9 C 3,8 C 11,3 km/h (2 Bft)
30.04.2017 06:27 3,9 C 94 % 1018,5 hPa 0,0 l/m 2,4 km/h (1 Bft) O 98 0 min 11 W/m 3,0 C 3,9 C 4,8 km/h (1 Bft)
30.04.2017 06:30 3,9 C 94 % 1018,5 hPa 0,0 l/m 2,1 km/h (1 Bft) O 90 0 min 12 W/m 3,0 C 3,9 C 4,8 km/h (1 Bft)
30.04.2017 06:33 3,9 C 94 % 1018,6 hPa 0,0 l/m 2,2 km/h (1 Bft) O 88 0 min 12 W/m 3,0 C 3,9 C 4,8 km/h (1 Bft)
30.04.2017 06:36 3,9 C 94 % 1018,6 hPa 0,0 l/m 2,0 km/h (1 Bft) S-SO 166 0 min 14 W/m 3,0 C 3,9 C 9,7 km/h (2 Bft)
30.04.2017 06:39 3,9 C 94 % 1018,6 hPa 0,0 l/m 2,9 km/h (1 Bft) O-SO 107 0 min 14 W/m 3,0 C 3,9 C 6,4 km/h (2 Bft)
30.04.2017 06:42 3,9 C 94 % 1018,7 hPa 0,0 l/m 4,6 km/h (1 Bft) O 101 0 min 14 W/m 3,0 C 3,9 C 11,3 km/h (2 Bft)
30.04.2017 06:45 3,9 C 94 % 1018,6 hPa 0,0 l/m 2,7 km/h (1 Bft) O 101 0 min 14 W/m 3,0 C 3,9 C 11,3 km/h (2 Bft)
30.04.2017 06:48 3,9 C 94 % 1018,6 hPa 0,0 l/m 5,6 km/h (2 Bft) O 93 0 min 16 W/m 3,0 C 3,9 C 12,9 km/h (3 Bft)
30.04.2017 06:51 3,9 C 94 % 1018,6 hPa 0,0 l/m 3,6 km/h (1 Bft) O 92 0 min 16 W/m 3,0 C 3,9 C 11,3 km/h (2 Bft)
30.04.2017 06:54 3,9 C 94 % 1018,6 hPa 0,0 l/m 3,2 km/h (1 Bft) O-SO 109 0 min 16 W/m 3,0 C 3,9 C 6,4 km/h (2 Bft)
30.04.2017 06:57 3,9 C 94 % 1018,6 hPa 0,0 l/m 3,3 km/h (1 Bft) NO 42 0 min 18 W/m 3,0 C 3,9 C 8,0 km/h (2 Bft)
30.04.2017 07:00 3,9 C 94 % 1018,6 hPa 0,0 l/m 3,5 km/h (1 Bft) S-SO 148 0 min 18 W/m 3,0 C 3,9 C 6,4 km/h (2 Bft)
30.04.2017 07:03 3,9 C 93 % 1018,6 hPa 0,0 l/m 2,7 km/h (1 Bft) O-SO 121 0 min 19 W/m 2,9 C 3,9 C 12,9 km/h (3 Bft)
30.04.2017 07:06 3,9 C 93 % 1018,6 hPa 0,0 l/m 2,5 km/h (1 Bft) O-SO 103 0 min 19 W/m 2,9 C 3,9 C 8,0 km/h (2 Bft)
30.04.2017 07:09 3,9 C 93 % 1018,6 hPa 0,0 l/m 3,4 km/h (1 Bft) O 88 0 min 19 W/m 2,9 C 3,9 C 11,3 km/h (2 Bft)
30.04.2017 07:12 4,0 C 93 % 1018,6 hPa 0,0 l/m 4,0 km/h (1 Bft) O-SO 102 0 min 19 W/m 3,0 C 4,0 C 11,3 km/h (2 Bft)
30.04.2017 07:15 4,0 C 93 % 1018,7 hPa 0,0 l/m 2,9 km/h (1 Bft) O 86 0 min 19 W/m 3,0 C 4,0 C 8,0 km/h (2 Bft)
30.04.2017 07:18 4,1 C 93 % 1018,7 hPa 0,0 l/m 3,8 km/h (1 Bft) O 82 0 min 21 W/m 3,1 C 4,1 C 17,7 km/h (3 Bft)
30.04.2017 07:21 4,1 C 92 % 1018,6 hPa 0,0 l/m 4,7 km/h (1 Bft) O-SO 119 0 min 26 W/m 2,9 C 4,1 C 12,9 km/h (3 Bft)
30.04.2017 07:24 4,2 C 92 % 1018,6 hPa 0,0 l/m 3,1 km/h (1 Bft) N-NO 15 0 min 33 W/m 3,0 C 4,2 C 8,0 km/h (2 Bft)
30.04.2017 07:27 4,3 C 92 % 1018,7 hPa 0,0 l/m 4,6 km/h (1 Bft) SO 144 0 min 26 W/m 3,1 C 4,3 C 11,3 km/h (2 Bft)
30.04.2017 07:30 4,3 C 92 % 1018,6 hPa 0,0 l/m 5,5 km/h (2 Bft) O 93 0 min 21 W/m 3,1 C 4,3 C 12,9 km/h (3 Bft)
30.04.2017 07:33 4,4 C 92 % 1018,6 hPa 0,0 l/m 4,5 km/h (1 Bft) O 90 0 min 23 W/m 3,2 C 4,4 C 14,5 km/h (3 Bft)
30.04.2017 07:36 4,5 C 91 % 1018,6 hPa 0,0 l/m 3,6 km/h (1 Bft) O-SO 122 0 min 23 W/m 3,2 C 4,5 C 8,0 km/h (2 Bft)
30.04.2017 07:39 4,6 C 91 % 1018,6 hPa 0,0 l/m 4,6 km/h (1 Bft) SO 124 0 min 23 W/m 3,3 C 4,6 C 12,9 km/h (3 Bft)
30.04.2017 07:42 4,6 C 91 % 1018,6 hPa 0,0 l/m 4,6 km/h (1 Bft) O-SO 121 0 min 25 W/m 3,3 C 4,6 C 11,3 km/h (2 Bft)
30.04.2017 07:45 4,7 C 90 % 1018,6 hPa 0,0 l/m 4,9 km/h (1 Bft) O-SO 113 0 min 25 W/m 3,2 C 4,7 C 11,3 km/h (2 Bft)
30.04.2017 07:48 4,8 C 90 % 1018,6 hPa 0,0 l/m 6,0 km/h (2 Bft) SO 135 0 min 25 W/m 3,3 C 4,8 C 11,3 km/h (2 Bft)
30.04.2017 07:51 4,9 C 90 % 1018,6 hPa 0,0 l/m 3,9 km/h (1 Bft) O 80 0 min 25 W/m 3,4 C 4,9 C 9,7 km/h (2 Bft)
30.04.2017 07:54 5,0 C 90 % 1018,6 hPa 0,0 l/m 5,9 km/h (2 Bft) O 91 0 min 26 W/m 3,5 C 5,0 C 12,9 km/h (3 Bft)
30.04.2017 07:57 5,1 C 89 % 1018,6 hPa 0,0 l/m 5,0 km/h (1 Bft) O-SO 123 0 min 25 W/m 3,4 C 5,1 C 11,3 km/h (2 Bft)
30.04.2017 08:00 5,1 C 89 % 1018,6 hPa 0,0 l/m 5,7 km/h (2 Bft) S-SO 165 0 min 32 W/m 3,4 C 5,1 C 14,5 km/h (3 Bft)
30.04.2017 08:03 5,2 C 89 % 1018,6 hPa 0,0 l/m 7,0 km/h (2 Bft) S 169 0 min 28 W/m 3,5 C 4,7 C 17,7 km/h (3 Bft)
30.04.2017 08:06 5,3 C 89 % 1018,6 hPa 0,0 l/m 7,0 km/h (2 Bft) S-SW 200 0 min 26 W/m 3,6 C 4,8 C 14,5 km/h (3 Bft)
30.04.2017 08:09 5,4 C 88 % 1018,6 hPa 0,0 l/m 5,7 km/h (2 Bft) SO 138 0 min 44 W/m 3,6 C 5,4 C 14,5 km/h (3 Bft)
30.04.2017 08:12 5,6 C 88 % 1018,6 hPa 0,0 l/m 5,0 km/h (1 Bft) O-NO 65 0 min 37 W/m 3,8 C 5,6 C 16,1 km/h (3 Bft)
30.04.2017 08:15 5,7 C 88 % 1018,5 hPa 0,0 l/m 5,9 km/h (2 Bft) O-SO 113 3 min 206 W/m 3,9 C 5,7 C 12,9 km/h (3 Bft)
30.04.2017 08:18 5,7 C 87 % 1018,5 hPa 0,0 l/m 6,2 km/h (2 Bft) O-NO 65 0 min 134 W/m 3,7 C 5,7 C 14,5 km/h (3 Bft)
30.04.2017 08:21 5,8 C 87 % 1018,5 hPa 0,0 l/m 6,6 km/h (2 Bft) S-SO 168 0 min 44 W/m 3,8 C 5,7 C 20,9 km/h (4 Bft)
30.04.2017 08:24 5,9 C 87 % 1018,5 hPa 0,0 l/m 5,7 km/h (2 Bft) S-SO 153 0 min 30 W/m 3,9 C 5,9 C 14,5 km/h (3 Bft)
30.04.2017 08:27 6,0 C 87 % 1018,5 hPa 0,0 l/m 5,6 km/h (2 Bft) O-SO 106 0 min 28 W/m 4,0 C 6,0 C 12,9 km/h (3 Bft)
30.04.2017 08:30 6,2 C 86 % 1018,5 hPa 0,0 l/m 6,4 km/h (2 Bft) N-NO 21 0 min 30 W/m 4,0 C 6,2 C 16,1 km/h (3 Bft)
30.04.2017 08:33 6,3 C 86 % 1018,5 hPa 0,0 l/m 5,8 km/h (2 Bft) SO 135 0 min 32 W/m 4,1 C 6,3 C 12,9 km/h (3 Bft)
30.04.2017 08:36 6,4 C 85 % 1018,6 hPa 0,0 l/m 5,6 km/h (2 Bft) O-SO 123 0 min 33 W/m 4,1 C 6,4 C 14,5 km/h (3 Bft)
30.04.2017 08:39 6,5 C 85 % 1018,5 hPa 0,0 l/m 5,6 km/h (2 Bft) O-SO 119 0 min 35 W/m 4,2 C 6,5 C 11,3 km/h (2 Bft)
30.04.2017 08:42 6,7 C 85 % 1018,6 hPa 0,0 l/m 6,5 km/h (2 Bft) O 80 0 min 33 W/m 4,4 C 6,6 C 16,1 km/h (3 Bft)
30.04.2017 08:45 6,8 C 84 % 1018,6 hPa 0,0 l/m 5,8 km/h (2 Bft) SO 130 0 min 35 W/m 4,3 C 6,8 C 14,5 km/h (3 Bft)
30.04.2017 08:48 6,9 C 84 % 1018,5 hPa 0,0 l/m 6,0 km/h (2 Bft) S-SO 163 0 min 35 W/m 4,4 C 6,9 C 16,1 km/h (3 Bft)
30.04.2017 08:51 7,1 C 83 % 1018,5 hPa 0,0 l/m 7,3 km/h (2 Bft) O-SO 119 0 min 62 W/m 4,4 C 6,4 C 14,5 km/h (3 Bft)
30.04.2017 08:54 7,2 C 82 % 1018,6 hPa 0,0 l/m 11,1 km/h (2 Bft) S-SO 159 3 min 255 W/m 4,3 C 3,8 C 25,7 km/h (4 Bft)
30.04.2017 08:57 7,2 C 81 % 1018,5 hPa 0,0 l/m 10,2 km/h (2 Bft) S 173 0 min 127 W/m 4,2 C 4,4 C 19,3 km/h (3 Bft)
30.04.2017 09:00 7,3 C 81 % 1018,5 hPa 0,0 l/m 9,2 km/h (2 Bft) O 98 0 min 69 W/m 4,3 C 5,1 C 16,1 km/h (3 Bft)
30.04.2017 09:03 7,4 C 81 % 1018,5 hPa 0,0 l/m 8,0 km/h (2 Bft) S-SW 196 0 min 47 W/m 4,4 C 6,1 C 19,3 km/h (3 Bft)
30.04.2017 09:06 7,6 C 80 % 1018,4 hPa 0,0 l/m 10,1 km/h (2 Bft) S 170 0 min 46 W/m 4,4 C 4,9 C 17,7 km/h (3 Bft)
30.04.2017 09:09 7,7 C 79 % 1018,4 hPa 0,0 l/m 9,9 km/h (2 Bft) SO 136 0 min 39 W/m 4,3 C 5,1 C 17,7 km/h (3 Bft)
30.04.2017 09:12 7,8 C 79 % 1018,4 hPa 0,0 l/m 9,2 km/h (2 Bft) S-SO 150 0 min 58 W/m 4,4 C 5,7 C 16,1 km/h (3 Bft)
30.04.2017 09:15 7,9 C 78 % 1018,3 hPa 0,0 l/m 9,4 km/h (2 Bft) S-SO 155 3 min 327 W/m 4,3 C 5,7 C 19,3 km/h (3 Bft)
30.04.2017 09:18 8,2 C 78 % 1018,3 hPa 0,0 l/m 8,8 km/h (2 Bft) NO 39 3 min 311 W/m 4,6 C 6,4 C 17,7 km/h (3 Bft)
30.04.2017 09:21 8,4 C 78 % 1018,4 hPa 0,0 l/m 6,5 km/h (2 Bft) O 84 3 min 309 W/m 4,8 C 8,3 C 12,9 km/h (3 Bft)
30.04.2017 09:24 8,6 C 76 % 1018,3 hPa 0,0 l/m 8,6 km/h (2 Bft) O 93 3 min 313 W/m 4,6 C 7,0 C 19,3 km/h (3 Bft)
30.04.2017 09:27 8,8 C 75 % 1018,3 hPa 0,0 l/m 9,0 km/h (2 Bft) S-SO 163 3 min 327 W/m 4,6 C 6,9 C 22,5 km/h (4 Bft)
30.04.2017 09:30 8,9 C 75 % 1018,3 hPa 0,0 l/m 7,7 km/h (2 Bft) O-SO 117 3 min 348 W/m 4,7 C 7,9 C 16,1 km/h (3 Bft)
30.04.2017 09:33 9,2 C 74 % 1018,2 hPa 0,0 l/m 7,0 km/h (2 Bft) O-SO 113 3 min 364 W/m 4,8 C 8,8 C 16,1 km/h (3 Bft)
30.04.2017 09:36 9,4 C 73 % 1018,2 hPa 0,0 l/m 6,8 km/h (2 Bft) O-SO 112 3 min 381 W/m 4,8 C 9,1 C 14,5 km/h (3 Bft)
30.04.2017 09:39 9,6 C 73 % 1018,2 hPa 0,0 l/m 8,5 km/h (2 Bft) O 79 3 min 387 W/m 5,0 C 8,1 C 19,3 km/h (3 Bft)
30.04.2017 09:42 9,6 C 72 % 1018,1 hPa 0,0 l/m 5,2 km/h (1 Bft) N-NO 19 3 min 394 W/m 4,8 C 9,6 C 14,5 km/h (3 Bft)
30.04.2017 09:45 9,7 C 73 % 1018,2 hPa 0,0 l/m 6,3 km/h (2 Bft) SO 130 3 min 401 W/m 5,1 C 9,7 C 19,3 km/h (3 Bft)
30.04.2017 09:48 9,9 C 72 % 1018,1 hPa 0,0 l/m 7,6 km/h (2 Bft) SO 126 3 min 417 W/m 5,1 C 9,0 C 17,7 km/h (3 Bft)
30.04.2017 09:51 10,0 C 69 % 1018,0 hPa 0,0 l/m 7,9 km/h (2 Bft) SO 132 3 min 434 W/m 4,6 C 8,9 C 20,9 km/h (4 Bft)
30.04.2017 09:54 9,9 C 70 % 1018,0 hPa 0,0 l/m 7,3 km/h (2 Bft) SO 145 3 min 459 W/m 4,7 C 9,2 C 19,3 km/h (3 Bft)
30.04.2017 09:57 10,1 C 70 % 1018,0 hPa 0,0 l/m 8,8 km/h (2 Bft) O-SO 106 3 min 478 W/m 4,9 C 8,4 C 19,3 km/h (3 Bft)
30.04.2017 10:00 10,2 C 70 % 1018,0 hPa 0,0 l/m 8,3 km/h (2 Bft) O-SO 116 3 min 504 W/m 5,0 C 8,9 C 14,5 km/h (3 Bft)
30.04.2017 10:03 10,3 C 68 % 1018,0 hPa 0,0 l/m 11,2 km/h (2 Bft) S 169 3 min 524 W/m 4,7 C 7,3 C 22,5 km/h (4 Bft)
30.04.2017 10:06 10,4 C 68 % 1018,0 hPa 0,0 l/m 10,6 km/h (2 Bft) O-SO 114 3 min 545 W/m 4,8 C 7,7 C 20,9 km/h (4 Bft)
30.04.2017 10:09 10,4 C 67 % 1017,9 hPa 0,0 l/m 9,7 km/h (2 Bft) SO 132 3 min 557 W/m 4,5 C 8,2 C 19,3 km/h (3 Bft)
30.04.2017 10:12 10,7 C 67 % 1017,9 hPa 0,0 l/m 7,8 km/h (2 Bft) SW 220 3 min 571 W/m 4,8 C 9,7 C 17,7 km/h (3 Bft)
30.04.2017 10:15 10,9 C 66 % 1017,8 hPa 0,0 l/m 6,5 km/h (2 Bft) O 94 3 min 573 W/m 4,8 C 10,9 C 16,1 km/h (3 Bft)
30.04.2017 10:18 11,2 C 66 % 1017,8 hPa 0,0 l/m 7,8 km/h (2 Bft) O-SO 113 3 min 582 W/m 5,1 C 10,2 C 22,5 km/h (4 Bft)
30.04.2017 10:21 11,2 C 66 % 1017,7 hPa 0,0 l/m 7,0 km/h (2 Bft) O-SO 121 3 min 589 W/m 5,1 C 10,8 C 20,9 km/h (4 Bft)
30.04.2017 10:24 11,3 C 65 % 1017,8 hPa 0,0 l/m 6,2 km/h (2 Bft) O-NO 69 3 min 591 W/m 5,0 C 11,3 C 12,9 km/h (3 Bft)
30.04.2017 10:27 11,2 C 65 % 1017,7 hPa 0,0 l/m 8,4 km/h (2 Bft) NO 55 3 min 598 W/m 4,9 C 9,9 C 12,9 km/h (3 Bft)
30.04.2017 10:30 11,3 C 67 % 1017,7 hPa 0,0 l/m 7,2 km/h (2 Bft) NO 44 3 min 606 W/m 5,4 C 10,8 C 19,3 km/h (3 Bft)
30.04.2017 10:33 11,5 C 67 % 1017,6 hPa 0,0 l/m 7,2 km/h (2 Bft) O 84 3 min 606 W/m 5,6 C 11,0 C 20,9 km/h (4 Bft)
30.04.2017 10:36 11,6 C 68 % 1017,5 hPa 0,0 l/m 5,3 km/h (1 Bft) N-NO 30 3 min 617 W/m 5,9 C 11,6 C 16,1 km/h (3 Bft)
30.04.2017 10:39 11,7 C 68 % 1017,6 hPa 0,0 l/m 5,1 km/h (1 Bft) NO 48 3 min 619 W/m 6,0 C 11,7 C 11,3 km/h (2 Bft)
30.04.2017 10:42 11,5 C 68 % 1017,6 hPa 0,0 l/m 4,8 km/h (1 Bft) N-NO 33 3 min 628 W/m 5,8 C 11,5 C 16,1 km/h (3 Bft)
30.04.2017 10:45 11,6 C 67 % 1017,5 hPa 0,0 l/m 8,9 km/h (2 Bft) NO 55 3 min 633 W/m 5,7 C 10,0 C 17,7 km/h (3 Bft)
30.04.2017 10:48 11,5 C 68 % 1017,5 hPa 0,0 l/m 7,6 km/h (2 Bft) O 100 3 min 635 W/m 5,8 C 10,7 C 16,1 km/h (3 Bft)
30.04.2017 10:51 11,5 C 67 % 1017,5 hPa 0,0 l/m 8,2 km/h (2 Bft) O-NO 63 3 min 642 W/m 5,6 C 10,3 C 17,7 km/h (3 Bft)
30.04.2017 10:54 11,7 C 67 % 1017,6 hPa 0,0 l/m 6,9 km/h (2 Bft) O 84 3 min 652 W/m 5,8 C 11,4 C 19,3 km/h (3 Bft)
30.04.2017 10:57 11,7 C 66 % 1017,5 hPa 0,0 l/m 9,1 km/h (2 Bft) N-NO 32 3 min 656 W/m 5,6 C 10,0 C 27,4 km/h (5 Bft)
30.04.2017 11:00 11,8 C 68 % 1017,5 hPa 0,0 l/m 5,4 km/h (2 Bft) O-NO 63 3 min 656 W/m 6,1 C 11,8 C 14,5 km/h (3 Bft)
30.04.2017 11:03 11,9 C 65 % 1017,5 hPa 0,0 l/m 6,8 km/h (2 Bft) O-NO 66 3 min 663 W/m 5,5 C 11,6 C 16,1 km/h (3 Bft)
30.04.2017 11:06 11,9 C 64 % 1017,3 hPa 0,0 l/m 9,9 km/h (2 Bft) O-SO 106 3 min 670 W/m 5,3 C 9,7 C 16,1 km/h (3 Bft)
30.04.2017 11:09 12,0 C 65 % 1017,4 hPa 0,0 l/m 7,4 km/h (2 Bft) O 97 3 min 677 W/m 5,6 C 11,3 C 17,7 km/h (3 Bft)
30.04.2017 11:12 12,1 C 64 % 1017,4 hPa 0,0 l/m 9,2 km/h (2 Bft) O-NO 73 3 min 684 W/m 5,5 C 10,3 C 19,3 km/h (3 Bft)
30.04.2017 11:15 12,1 C 64 % 1017,3 hPa 0,0 l/m 7,3 km/h (2 Bft) NO 54 3 min 682 W/m 5,5 C 11,5 C 16,1 km/h (3 Bft)
30.04.2017 11:18 12,0 C 63 % 1017,3 hPa 0,0 l/m 10,5 km/h (2 Bft) N 355 3 min 694 W/m 5,2 C 9,5 C 17,7 km/h (3 Bft)
30.04.2017 11:21 12,2 C 63 % 1017,2 hPa 0,0 l/m 5,8 km/h (2 Bft) S-SO 160 3 min 696 W/m 5,4 C 12,2 C 20,9 km/h (4 Bft)
30.04.2017 11:24 12,4 C 63 % 1017,2 hPa 0,0 l/m 6,5 km/h (2 Bft) NO 42 3 min 707 W/m 5,6 C 12,4 C 19,3 km/h (3 Bft)
30.04.2017 11:27 12,5 C 62 % 1017,2 hPa 0,0 l/m 10,0 km/h (2 Bft) O 85 3 min 705 W/m 5,4 C 10,4 C 19,3 km/h (3 Bft)
30.04.2017 11:30 12,4 C 62 % 1017,1 hPa 0,0 l/m 8,8 km/h (2 Bft) N-NO 26 3 min 708 W/m 5,3 C 10,9 C 16,1 km/h (3 Bft)
30.04.2017 11:33 12,4 C 62 % 1017,1 hPa 0,0 l/m 7,6 km/h (2 Bft) O 86 3 min 708 W/m 5,3 C 11,6 C 20,9 km/h (4 Bft)
30.04.2017 11:36 12,4 C 62 % 1017,0 hPa 0,0 l/m 7,9 km/h (2 Bft) NO 50 3 min 715 W/m 5,3 C 11,4 C 17,7 km/h (3 Bft)
30.04.2017 11:39 12,6 C 61 % 1017,0 hPa 0,0 l/m 10,1 km/h (2 Bft) N 355 3 min 722 W/m 5,3 C 10,4 C 24,1 km/h (4 Bft)
30.04.2017 11:42 12,6 C 61 % 1016,9 hPa 0,0 l/m 8,9 km/h (2 Bft) O-NO 59 3 min 724 W/m 5,3 C 11,1 C 29,0 km/h (5 Bft)
30.04.2017 11:45 12,8 C 61 % 1016,9 hPa 0,0 l/m 6,9 km/h (2 Bft) O-NO 78 3 min 715 W/m 5,5 C 12,5 C 16,1 km/h (3 Bft)
30.04.2017 11:48 12,9 C 60 % 1016,8 hPa 0,0 l/m 7,4 km/h (2 Bft) N-NO 22 3 min 707 W/m 5,3 C 12,3 C 17,7 km/h (3 Bft)
30.04.2017 11:51 13,0 C 60 % 1016,8 hPa 0,0 l/m 6,4 km/h (2 Bft) S-SO 153 3 min 694 W/m 5,4 C 13,0 C 14,5 km/h (3 Bft)
30.04.2017 11:54 13,1 C 58 % 1016,7 hPa 0,0 l/m 12,1 km/h (2 Bft) NO 47 3 min 677 W/m 5,0 C 10,0 C 22,5 km/h (4 Bft)
30.04.2017 11:57 13,1 C 58 % 1016,8 hPa 0,0 l/m 7,5 km/h (2 Bft) NO 42 3 min 656 W/m 5,0 C 12,4 C 20,9 km/h (4 Bft)
30.04.2017 12:00 13,1 C 58 % 1016,6 hPa 0,0 l/m 11,3 km/h (2 Bft) O-SO 103 3 min 645 W/m 5,0 C 10,4 C 22,5 km/h (4 Bft)
30.04.2017 12:03 13,1 C 58 % 1016,7 hPa 0,0 l/m 9,5 km/h (2 Bft) O 83 3 min 622 W/m 5,0 C 11,3 C 22,5 km/h (4 Bft)
30.04.2017 12:06 13,2 C 58 % 1016,6 hPa 0,0 l/m 8,1 km/h (2 Bft) NO 44 3 min 610 W/m 5,1 C 12,2 C 17,7 km/h (3 Bft)
30.04.2017 12:09 13,2 C 57 % 1016,6 hPa 0,0 l/m 8,5 km/h (2 Bft) O-NO 58 3 min 594 W/m 4,9 C 11,9 C 20,9 km/h (4 Bft)
30.04.2017 12:12 13,1 C 57 % 1016,5 hPa 0,0 l/m 11,7 km/h (2 Bft) O-NO 74 3 min 589 W/m 4,8 C 10,2 C 29,0 km/h (5 Bft)
30.04.2017 12:15 13,2 C 58 % 1016,5 hPa 0,0 l/m 12,2 km/h (2 Bft) N 360 3 min 592 W/m 5,1 C 10,1 C 25,7 km/h (4 Bft)
30.04.2017 12:18 13,2 C 58 % 1016,4 hPa 0,0 l/m 7,3 km/h (2 Bft) O-SO 103 3 min 589 W/m 5,1 C 12,6 C 17,7 km/h (3 Bft)
30.04.2017 12:21 13,4 C 59 % 1016,4 hPa 0,0 l/m 7,3 km/h (2 Bft) SO 142 3 min 628 W/m 5,6 C 12,8 C 22,5 km/h (4 Bft)
30.04.2017 12:24 13,3 C 58 % 1016,3 hPa 0,0 l/m 12,0 km/h (2 Bft) O-NO 67 3 min 621 W/m 5,2 C 10,3 C 29,0 km/h (5 Bft)
30.04.2017 12:27 13,6 C 56 % 1016,3 hPa 0,0 l/m 8,5 km/h (2 Bft) O 96 3 min 652 W/m 5,0 C 12,4 C 14,5 km/h (3 Bft)
30.04.2017 12:30 13,7 C 57 % 1016,3 hPa 0,0 l/m 6,7 km/h (2 Bft) N 5 3 min 663 W/m 5,3 C 13,5 C 20,9 km/h (4 Bft)
30.04.2017 12:33 13,9 C 57 % 1016,2 hPa 0,0 l/m 7,7 km/h (2 Bft) O-SO 109 3 min 715 W/m 5,5 C 13,1 C 16,1 km/h (3 Bft)
30.04.2017 12:36 13,9 C 56 % 1016,3 hPa 0,0 l/m 7,8 km/h (2 Bft) SO 124 3 min 715 W/m 5,3 C 13,1 C 20,9 km/h (4 Bft)
30.04.2017 12:39 13,7 C 58 % 1016,1 hPa 0,0 l/m 7,3 km/h (2 Bft) S-SO 160 3 min 740 W/m 5,6 C 13,2 C 14,5 km/h (3 Bft)
30.04.2017 12:42 14,0 C 57 % 1016,1 hPa 0,0 l/m 7,4 km/h (2 Bft) O-SO 121 3 min 761 W/m 5,6 C 13,4 C 19,3 km/h (3 Bft)
30.04.2017 12:45 14,2 C 57 % 1016,1 hPa 0,0 l/m 8,5 km/h (2 Bft) O-NO 60 3 min 775 W/m 5,8 C 13,0 C 17,7 km/h (3 Bft)
30.04.2017 12:48 13,8 C 59 % 1016,1 hPa 0,0 l/m 8,2 km/h (2 Bft) N-NO 16 3 min 803 W/m 5,9 C 12,7 C 25,7 km/h (4 Bft)
30.04.2017 12:51 13,9 C 57 % 1015,9 hPa 0,0 l/m 7,5 km/h (2 Bft) SO 133 3 min 795 W/m 5,5 C 13,2 C 20,9 km/h (4 Bft)
30.04.2017 12:54 14,2 C 52 % 1016,1 hPa 0,0 l/m 13,1 km/h (3 Bft) S 182 3 min 784 W/m 4,5 C 10,9 C 24,1 km/h (4 Bft)
30.04.2017 12:57 13,9 C 49 % 1015,9 hPa 0,0 l/m 15,1 km/h (3 Bft) O 87 3 min 782 W/m 3,4 C 9,8 C 29,0 km/h (5 Bft)
30.04.2017 13:00 14,2 C 52 % 1016,1 hPa 0,0 l/m 8,0 km/h (2 Bft) O 86 3 min 786 W/m 4,5 C 13,3 C 17,7 km/h (3 Bft)
30.04.2017 13:03 14,4 C 54 % 1015,9 hPa 0,0 l/m 8,6 km/h (2 Bft) O 90 3 min 780 W/m 5,2 C 13,1 C 20,9 km/h (4 Bft)
30.04.2017 13:06 14,4 C 55 % 1015,9 hPa 0,0 l/m 6,3 km/h (2 Bft) NO 50 3 min 784 W/m 5,5 C 14,4 C 24,1 km/h (4 Bft)
30.04.2017 13:09 14,6 C 58 % 1015,8 hPa 0,0 l/m 11,0 km/h (2 Bft) O-NO 65 3 min 784 W/m 6,4 C 12,2 C 25,7 km/h (4 Bft)
30.04.2017 13:12 14,4 C 58 % 1015,8 hPa 0,0 l/m 7,9 km/h (2 Bft) O-NO 78 3 min 791 W/m 6,2 C 13,5 C 19,3 km/h (3 Bft)
30.04.2017 13:15 14,2 C 55 % 1015,8 hPa 0,0 l/m 10,8 km/h (2 Bft) O-NO 63 3 min 802 W/m 5,3 C 11,9 C 22,5 km/h (4 Bft)
30.04.2017 13:18 14,4 C 57 % 1015,7 hPa 0,0 l/m 8,7 km/h (2 Bft) S-SO 155 3 min 798 W/m 6,0 C 13,1 C 17,7 km/h (3 Bft)
30.04.2017 13:21 14,6 C 59 % 1015,7 hPa 0,0 l/m 8,8 km/h (2 Bft) O-SO 107 3 min 780 W/m 6,7 C 13,3 C 22,5 km/h (4 Bft)
30.04.2017 13:24 14,4 C 57 % 1015,7 hPa 0,0 l/m 9,3 km/h (2 Bft) N 355 3 min 780 W/m 6,0 C 12,8 C 19,3 km/h (3 Bft)
30.04.2017 13:27 14,3 C 57 % 1015,6 hPa 0,0 l/m 10,5 km/h (2 Bft) O 85 3 min 819 W/m 5,9 C 12,1 C 24,1 km/h (4 Bft)
30.04.2017 13:30 14,4 C 57 % 1015,6 hPa 0,0 l/m 9,4 km/h (2 Bft) O-SO 103 3 min 810 W/m 6,0 C 12,7 C 32,2 km/h (5 Bft)
30.04.2017 13:33 14,5 C 56 % 1015,6 hPa 0,0 l/m 11,8 km/h (2 Bft) SO 134 3 min 803 W/m 5,8 C 11,8 C 25,7 km/h (4 Bft)
30.04.2017 13:36 14,4 C 55 % 1015,5 hPa 0,0 l/m 10,1 km/h (2 Bft) N-NO 29 3 min 831 W/m 5,5 C 12,4 C 20,9 km/h (4 Bft)
30.04.2017 13:39 14,6 C 56 % 1015,4 hPa 0,0 l/m 10,6 km/h (2 Bft) O-NO 61 3 min 842 W/m 5,9 C 12,4 C 22,5 km/h (4 Bft)
30.04.2017 13:42 14,9 C 54 % 1015,4 hPa 0,0 l/m 5,9 km/h (2 Bft) NO 51 3 min 807 W/m 5,7 C 14,9 C 16,1 km/h (3 Bft)
30.04.2017 13:45 15,0 C 55 % 1015,4 hPa 0,0 l/m 8,8 km/h (2 Bft) S 185 3 min 828 W/m 6,0 C 13,7 C 17,7 km/h (3 Bft)
30.04.2017 13:48 14,7 C 54 % 1015,3 hPa 0,0 l/m 7,7 km/h (2 Bft) NO 38 3 min 795 W/m 5,5 C 14,0 C 20,9 km/h (4 Bft)
30.04.2017 13:51 15,1 C 55 % 1015,4 hPa 0,0 l/m 6,4 km/h (2 Bft) O-NO 58 3 min 782 W/m 6,1 C 15,1 C 22,5 km/h (4 Bft)
30.04.2017 13:54 15,2 C 53 % 1015,3 hPa 0,0 l/m 9,9 km/h (2 Bft) O-NO 57 3 min 773 W/m 5,7 C 13,4 C 20,9 km/h (4 Bft)
30.04.2017 13:57 14,9 C 52 % 1015,3 hPa 0,0 l/m 11,8 km/h (2 Bft) SO 135 3 min 782 W/m 5,1 C 12,2 C 32,2 km/h (5 Bft)
30.04.2017 14:00 14,8 C 54 % 1015,1 hPa 0,0 l/m 10,0 km/h (2 Bft) NO 34 3 min 770 W/m 5,6 C 12,9 C 22,5 km/h (4 Bft)
30.04.2017 14:03 14,9 C 52 % 1015,1 hPa 0,0 l/m 8,6 km/h (2 Bft) NO 47 3 min 775 W/m 5,1 C 13,7 C 19,3 km/h (3 Bft)
30.04.2017 14:06 14,9 C 53 % 1015,1 hPa 0,0 l/m 9,8 km/h (2 Bft) O-SO 107 3 min 780 W/m 5,4 C 13,1 C 20,9 km/h (4 Bft)
30.04.2017 14:09 15,2 C 51 % 1015,0 hPa 0,0 l/m 10,2 km/h (2 Bft) O 94 3 min 763 W/m 5,1 C 13,2 C 22,5 km/h (4 Bft)
30.04.2017 14:12 15,3 C 52 % 1014,9 hPa 0,0 l/m 8,2 km/h (2 Bft) O-NO 57 3 min 770 W/m 5,5 C 14,3 C 24,1 km/h (4 Bft)
30.04.2017 14:15 15,1 C 49 % 1014,9 hPa 0,0 l/m 15,9 km/h (3 Bft) O-NO 58 3 min 766 W/m 4,5 C 11,0 C 35,4 km/h (5 Bft)
30.04.2017 14:18 15,1 C 49 % 1014,9 hPa 0,0 l/m 10,2 km/h (2 Bft) O-SO 104 3 min 761 W/m 4,5 C 13,1 C 25,7 km/h (4 Bft)
30.04.2017 14:21 15,2 C 51 % 1014,9 hPa 0,0 l/m 7,1 km/h (2 Bft) NO 42 3 min 765 W/m 5,1 C 14,8 C 19,3 km/h (3 Bft)
30.04.2017 14:24 15,3 C 50 % 1014,9 hPa 0,0 l/m 5,7 km/h (2 Bft) O-NO 61 3 min 763 W/m 4,9 C 15,3 C 16,1 km/h (3 Bft)
30.04.2017 14:27 15,7 C 48 % 1015,0 hPa 0,0 l/m 9,0 km/h (2 Bft) S 182 3 min 759 W/m 4,7 C 14,3 C 19,3 km/h (3 Bft)
30.04.2017 14:30 15,6 C 49 % 1014,9 hPa 0,0 l/m 8,8 km/h (2 Bft) N-NW 332 3 min 756 W/m 4,9 C 14,3 C 22,5 km/h (4 Bft)
30.04.2017 14:33 15,7 C 50 % 1014,8 hPa 0,0 l/m 7,9 km/h (2 Bft) O-SO 121 3 min 754 W/m 5,3 C 14,9 C 25,7 km/h (4 Bft)
30.04.2017 14:36 15,7 C 50 % 1014,8 hPa 0,0 l/m 11,8 km/h (2 Bft) O-NO 77 3 min 754 W/m 5,3 C 13,2 C 30,6 km/h (5 Bft)
30.04.2017 14:39 15,3 C 50 % 1014,7 hPa 0,0 l/m 11,2 km/h (2 Bft) NO 55 3 min 754 W/m 4,9 C 12,9 C 29,0 km/h (5 Bft)
30.04.2017 14:42 15,3 C 50 % 1014,8 hPa 0,0 l/m 10,0 km/h (2 Bft) O-NO 66 3 min 747 W/m 4,9 C 13,4 C 25,7 km/h (4 Bft)
30.04.2017 14:45 15,3 C 51 % 1014,7 hPa 0,0 l/m 11,1 km/h (2 Bft) O-SO 103 3 min 731 W/m 5,2 C 13,0 C 25,7 km/h (4 Bft)
30.04.2017 14:48 15,6 C 50 % 1014,8 hPa 0,0 l/m 10,5 km/h (2 Bft) W-NW 286 3 min 738 W/m 5,2 C 13,6 C 24,1 km/h (4 Bft)
30.04.2017 14:51 15,6 C 50 % 1014,7 hPa 0,0 l/m 8,5 km/h (2 Bft) O 79 3 min 735 W/m 5,2 C 14,5 C 20,9 km/h (4 Bft)
30.04.2017 14:54 15,3 C 51 % 1014,6 hPa 0,0 l/m 9,1 km/h (2 Bft) N-NW 338 3 min 731 W/m 5,2 C 13,9 C 16,1 km/h (3 Bft)
30.04.2017 14:57 15,3 C 51 % 1014,6 hPa 0,0 l/m 15,2 km/h (3 Bft) N 5 3 min 735 W/m 5,2 C 11,5 C 30,6 km/h (5 Bft)
30.04.2017 15:00 15,1 C 51 % 1014,4 hPa 0,0 l/m 12,9 km/h (3 Bft) SO 137 3 min 710 W/m 5,0 C 12,0 C 25,7 km/h (4 Bft)
30.04.2017 15:03 15,2 C 52 % 1014,5 hPa 0,0 l/m 9,3 km/h (2 Bft) O 92 3 min 715 W/m 5,4 C 13,7 C 22,5 km/h (4 Bft)
30.04.2017 15:06 15,3 C 50 % 1014,5 hPa 0,0 l/m 11,0 km/h (2 Bft) O-SO 104 3 min 698 W/m 4,9 C 13,0 C 24,1 km/h (4 Bft)
30.04.2017 15:09 15,4 C 51 % 1014,4 hPa 0,0 l/m 7,7 km/h (2 Bft) N-NO 24 3 min 715 W/m 5,3 C 14,7 C 16,1 km/h (3 Bft)
30.04.2017 15:12 15,6 C 50 % 1014,3 hPa 0,0 l/m 8,1 km/h (2 Bft) N-NO 21 3 min 722 W/m 5,2 C 14,7 C 20,9 km/h (4 Bft)
30.04.2017 15:15 15,4 C 50 % 1014,3 hPa 0,0 l/m 9,7 km/h (2 Bft) NO 55 3 min 684 W/m 5,0 C 13,7 C 20,9 km/h (4 Bft)
30.04.2017 15:18 15,6 C 52 % 1014,3 hPa 0,0 l/m 10,3 km/h (2 Bft) N 5 3 min 666 W/m 5,8 C 13,7 C 22,5 km/h (4 Bft)
30.04.2017 15:21 15,4 C 51 % 1014,1 hPa 0,0 l/m 11,3 km/h (2 Bft) O-SO 103 3 min 701 W/m 5,3 C 13,0 C 25,7 km/h (4 Bft)
30.04.2017 15:24 15,5 C 50 % 1014,2 hPa 0,0 l/m 9,9 km/h (2 Bft) N-NO 22 3 min 700 W/m 5,1 C 13,7 C 20,9 km/h (4 Bft)
30.04.2017 15:27 15,2 C 48 % 1014,1 hPa 0,0 l/m 11,9 km/h (2 Bft) O-SO 108 3 min 680 W/m 4,3 C 12,5 C 27,4 km/h (5 Bft)
30.04.2017 15:30 15,0 C 50 % 1014,0 hPa 0,0 l/m 11,4 km/h (2 Bft) O 89 3 min 666 W/m 4,7 C 12,5 C 27,4 km/h (5 Bft)
30.04.2017 15:33 15,3 C 51 % 1014,0 hPa 0,0 l/m 9,1 km/h (2 Bft) SO 128 3 min 664 W/m 5,2 C 13,9 C 20,9 km/h (4 Bft)
30.04.2017 15:36 15,3 C 50 % 1013,9 hPa 0,0 l/m 11,8 km/h (2 Bft) O 87 3 min 666 W/m 4,9 C 12,7 C 19,3 km/h (3 Bft)
30.04.2017 15:39 15,4 C 52 % 1014,0 hPa 0,0 l/m 9,8 km/h (2 Bft) N-NO 16 3 min 682 W/m 5,6 C 13,6 C 24,1 km/h (4 Bft)
30.04.2017 15:42 15,7 C 51 % 1013,9 hPa 0,0 l/m 8,5 km/h (2 Bft) O-NO 59 3 min 684 W/m 5,6 C 14,6 C 22,5 km/h (4 Bft)
30.04.2017 15:45 15,7 C 50 % 1013,9 hPa 0,0 l/m 9,0 km/h (2 Bft) NO 37 3 min 666 W/m 5,3 C 14,3 C 20,9 km/h (4 Bft)
30.04.2017 15:48 15,8 C 50 % 1013,8 hPa 0,0 l/m 7,0 km/h (2 Bft) N-NO 30 3 min 642 W/m 5,4 C 15,5 C 16,1 km/h (3 Bft)
30.04.2017 15:51 15,9 C 47 % 1013,8 hPa 0,0 l/m 11,8 km/h (2 Bft) O-SO 110 3 min 608 W/m 4,6 C 13,4 C 25,7 km/h (4 Bft)
30.04.2017 15:54 15,5 C 48 % 1013,7 hPa 0,0 l/m 10,8 km/h (2 Bft) N-NO 30 3 min 587 W/m 4,5 C 13,3 C 22,5 km/h (4 Bft)
30.04.2017 15:57 15,6 C 48 % 1013,8 hPa 0,0 l/m 11,2 km/h (2 Bft) NO 48 3 min 603 W/m 4,6 C 13,3 C 20,9 km/h (4 Bft)
30.04.2017 16:00 15,5 C 49 % 1013,7 hPa 0,0 l/m 9,2 km/h (2 Bft) O-NO 61 3 min 606 W/m 4,8 C 14,0 C 20,9 km/h (4 Bft)
30.04.2017 16:03 15,4 C 52 % 1013,7 hPa 0,0 l/m 9,9 km/h (2 Bft) NO 42 3 min 566 W/m 5,6 C 13,6 C 27,4 km/h (5 Bft)
30.04.2017 16:06 15,5 C 52 % 1013,6 hPa 0,0 l/m 5,4 km/h (2 Bft) O-NO 65 3 min 531 W/m 5,7 C 15,5 C 12,9 km/h (3 Bft)
30.04.2017 16:09 15,6 C 50 % 1013,6 hPa 0,0 l/m 9,3 km/h (2 Bft) N-NO 32 3 min 589 W/m 5,2 C 14,1 C 20,9 km/h (4 Bft)
30.04.2017 16:12 15,2 C 51 % 1013,5 hPa 0,0 l/m 12,3 km/h (2 Bft) O 91 3 min 554 W/m 5,1 C 12,4 C 25,7 km/h (4 Bft)
30.04.2017 16:15 15,2 C 52 % 1013,5 hPa 0,0 l/m 7,9 km/h (2 Bft) NO 49 3 min 538 W/m 5,4 C 14,4 C 20,9 km/h (4 Bft)
30.04.2017 16:18 15,1 C 51 % 1013,5 hPa 0,0 l/m 10,2 km/h (2 Bft) O-NO 59 3 min 554 W/m 5,0 C 13,1 C 20,9 km/h (4 Bft)
30.04.2017 16:21 15,2 C 50 % 1013,5 hPa 0,0 l/m 9,8 km/h (2 Bft) N-NW 346 3 min 570 W/m 4,8 C 13,4 C 20,9 km/h (4 Bft)
30.04.2017 16:24 15,3 C 50 % 1013,4 hPa 0,0 l/m 8,8 km/h (2 Bft) NO 36 3 min 550 W/m 4,9 C 14,0 C 20,9 km/h (4 Bft)
30.04.2017 16:27 15,2 C 50 % 1013,3 hPa 0,0 l/m 10,5 km/h (2 Bft) NO 56 3 min 550 W/m 4,8 C 13,1 C 20,9 km/h (4 Bft)
30.04.2017 16:30 15,2 C 50 % 1013,3 hPa 0,0 l/m 10,4 km/h (2 Bft) O-SO 123 3 min 496 W/m 4,8 C 13,2 C 17,7 km/h (3 Bft)
30.04.2017 16:33 15,1 C 50 % 1013,3 hPa 0,0 l/m 8,8 km/h (2 Bft) N-NO 17 3 min 404 W/m 4,8 C 13,8 C 19,3 km/h (3 Bft)
30.04.2017 16:36 14,9 C 50 % 1013,4 hPa 0,0 l/m 11,4 km/h (2 Bft) O-SO 113 3 min 461 W/m 4,6 C 12,4 C 35,4 km/h (5 Bft)
30.04.2017 16:39 14,9 C 51 % 1013,3 hPa 0,0 l/m 8,7 km/h (2 Bft) NO 43 3 min 464 W/m 4,9 C 13,6 C 19,3 km/h (3 Bft)
30.04.2017 16:42 15,0 C 54 % 1013,3 hPa 0,0 l/m 9,0 km/h (2 Bft) N-NO 28 3 min 547 W/m 5,8 C 13,6 C 20,9 km/h (4 Bft)
30.04.2017 16:45 15,2 C 53 % 1013,3 hPa 0,0 l/m 8,0 km/h (2 Bft) O-NO 63 3 min 589 W/m 5,7 C 14,3 C 27,4 km/h (5 Bft)
30.04.2017 16:48 15,4 C 52 % 1013,2 hPa 0,0 l/m 11,0 km/h (2 Bft) O 99 3 min 566 W/m 5,6 C 13,1 C 38,6 km/h (6 Bft)
30.04.2017 16:51 15,3 C 52 % 1013,1 hPa 0,0 l/m 9,3 km/h (2 Bft) NW 324 3 min 548 W/m 5,5 C 13,8 C 20,9 km/h (4 Bft)
30.04.2017 16:54 15,3 C 51 % 1013,1 hPa 0,0 l/m 10,1 km/h (2 Bft) N-NW 343 3 min 550 W/m 5,2 C 13,4 C 29,0 km/h (5 Bft)
30.04.2017 16:57 15,5 C 50 % 1013,0 hPa 0,0 l/m 9,5 km/h (2 Bft) NO 55 3 min 519 W/m 5,1 C 13,9 C 32,2 km/h (5 Bft)
30.04.2017 17:00 15,3 C 51 % 1013,0 hPa 0,0 l/m 9,2 km/h (2 Bft) O 85 3 min 519 W/m 5,2 C 13,8 C 35,4 km/h (5 Bft)
30.04.2017 17:03 15,3 C 50 % 1013,0 hPa 0,0 l/m 11,5 km/h (2 Bft) N 355 3 min 480 W/m 4,9 C 12,8 C 25,7 km/h (4 Bft)
30.04.2017 17:06 15,2 C 51 % 1012,9 hPa 0,0 l/m 10,3 km/h (2 Bft) N-NO 26 3 min 468 W/m 5,1 C 13,2 C 20,9 km/h (4 Bft)
30.04.2017 17:09 15,3 C 50 % 1012,8 hPa 0,0 l/m 12,9 km/h (3 Bft) NO 55 3 min 394 W/m 4,9 C 12,3 C 25,7 km/h (4 Bft)
30.04.2017 17:12 15,2 C 50 % 1012,8 hPa 0,0 l/m 8,0 km/h (2 Bft) O-NO 63 3 min 446 W/m 4,8 C 14,3 C 20,9 km/h (4 Bft)
30.04.2017 17:15 15,2 C 50 % 1012,8 hPa 0,0 l/m 8,7 km/h (2 Bft) NO 56 3 min 424 W/m 4,8 C 14,0 C 16,1 km/h (3 Bft)
30.04.2017 17:18 15,2 C 50 % 1012,8 hPa 0,0 l/m 9,4 km/h (2 Bft) O-SO 121 3 min 369 W/m 4,8 C 13,6 C 22,5 km/h (4 Bft)
30.04.2017 17:21 14,9 C 50 % 1012,8 hPa 0,0 l/m 10,8 km/h (2 Bft) N-NO 21 3 min 366 W/m 4,6 C 12,7 C 29,0 km/h (5 Bft)
30.04.2017 17:24 14,8 C 52 % 1012,7 hPa 0,0 l/m 9,5 km/h (2 Bft) O-NO 77 3 min 448 W/m 5,0 C 13,1 C 19,3 km/h (3 Bft)
30.04.2017 17:27 14,9 C 53 % 1012,7 hPa 0,0 l/m 10,2 km/h (2 Bft) SO 143 3 min 448 W/m 5,4 C 12,9 C 19,3 km/h (3 Bft)
30.04.2017 17:30 14,9 C 50 % 1012,7 hPa 0,0 l/m 12,3 km/h (2 Bft) N-NO 22 3 min 401 W/m 4,6 C 12,0 C 30,6 km/h (5 Bft)
30.04.2017 17:33 14,7 C 50 % 1012,6 hPa 0,0 l/m 11,9 km/h (2 Bft) O 94 3 min 396 W/m 4,4 C 12,0 C 24,1 km/h (4 Bft)
30.04.2017 17:36 14,7 C 51 % 1012,5 hPa 0,0 l/m 11,5 km/h (2 Bft) NO 37 3 min 381 W/m 4,7 C 12,1 C 20,9 km/h (4 Bft)
30.04.2017 17:39 14,6 C 52 % 1012,5 hPa 0,0 l/m 11,5 km/h (2 Bft) N-NO 30 3 min 371 W/m 4,9 C 12,0 C 30,6 km/h (5 Bft)
30.04.2017 17:42 14,6 C 53 % 1012,5 hPa 0,0 l/m 9,4 km/h (2 Bft) N-NO 14 3 min 394 W/m 5,1 C 13,0 C 24,1 km/h (4 Bft)
30.04.2017 17:45 14,6 C 51 % 1012,6 hPa 0,0 l/m 11,2 km/h (2 Bft) N-NO 12 3 min 394 W/m 4,6 C 12,1 C 20,9 km/h (4 Bft)
30.04.2017 17:48 14,7 C 51 % 1012,5 hPa 0,0 l/m 11,2 km/h (2 Bft) NO 47 3 min 403 W/m 4,7 C 12,3 C 24,1 km/h (4 Bft)
30.04.2017 17:51 14,8 C 49 % 1012,6 hPa 0,0 l/m 12,0 km/h (2 Bft) O-NO 65 3 min 392 W/m 4,2 C 12,0 C 29,0 km/h (5 Bft)
30.04.2017 17:54 14,9 C 50 % 1012,5 hPa 0,0 l/m 9,7 km/h (2 Bft) O-NO 61 3 min 380 W/m 4,6 C 13,1 C 19,3 km/h (3 Bft)
30.04.2017 17:57 14,8 C 51 % 1012,5 hPa 0,0 l/m 11,5 km/h (2 Bft) NO 51 3 min 367 W/m 4,8 C 12,2 C 22,5 km/h (4 Bft)
30.04.2017 18:00 14,9 C 51 % 1012,5 hPa 0,0 l/m 10,0 km/h (2 Bft) O-SO 103 3 min 359 W/m 4,9 C 13,0 C 22,5 km/h (4 Bft)
30.04.2017 18:03 14,8 C 52 % 1012,4 hPa 0,0 l/m 10,7 km/h (2 Bft) O 101 3 min 355 W/m 5,0 C 12,6 C 30,6 km/h (5 Bft)
30.04.2017 18:06 14,7 C 52 % 1012,4 hPa 0,0 l/m 7,5 km/h (2 Bft) NO 37 3 min 343 W/m 5,0 C 14,1 C 19,3 km/h (3 Bft)
30.04.2017 18:09 14,8 C 51 % 1012,3 hPa 0,0 l/m 11,0 km/h (2 Bft) O-NO 67 3 min 336 W/m 4,8 C 12,5 C 27,4 km/h (5 Bft)
30.04.2017 18:12 14,8 C 51 % 1012,3 hPa 0,0 l/m 9,3 km/h (2 Bft) O-NO 66 3 min 325 W/m 4,8 C 13,2 C 24,1 km/h (4 Bft)
30.04.2017 18:15 14,8 C 50 % 1012,3 hPa 0,0 l/m 11,2 km/h (2 Bft) O-SO 123 3 min 318 W/m 4,5 C 12,4 C 24,1 km/h (4 Bft)
30.04.2017 18:18 14,7 C 51 % 1012,2 hPa 0,0 l/m 9,0 km/h (2 Bft) O-NO 67 3 min 309 W/m 4,7 C 13,3 C 19,3 km/h (3 Bft)
30.04.2017 18:21 14,7 C 52 % 1012,2 hPa 0,0 l/m 9,2 km/h (2 Bft) O-NO 67 3 min 302 W/m 5,0 C 13,2 C 19,3 km/h (3 Bft)
30.04.2017 18:24 14,7 C 52 % 1012,2 hPa 0,0 l/m 7,7 km/h (2 Bft) N 350 3 min 294 W/m 5,0 C 14,0 C 17,7 km/h (3 Bft)
30.04.2017 18:27 14,7 C 51 % 1012,1 hPa 0,0 l/m 8,5 km/h (2 Bft) NO 49 3 min 287 W/m 4,7 C 13,5 C 22,5 km/h (4 Bft)
30.04.2017 18:30 14,6 C 52 % 1011,9 hPa 0,0 l/m 12,4 km/h (2 Bft) N-NO 32 3 min 274 W/m 4,9 C 11,7 C 25,7 km/h (4 Bft)
30.04.2017 18:33 14,4 C 53 % 1012,0 hPa 0,0 l/m 11,0 km/h (2 Bft) N-NO 32 0 min 46 W/m 4,9 C 12,0 C 29,0 km/h (5 Bft)
30.04.2017 18:36 14,3 C 53 % 1012,0 hPa 0,0 l/m 8,7 km/h (2 Bft) O-SO 119 0 min 39 W/m 4,9 C 13,0 C 19,3 km/h (3 Bft)
30.04.2017 18:39 14,3 C 53 % 1012,0 hPa 0,0 l/m 7,9 km/h (2 Bft) NO 35 0 min 39 W/m 4,9 C 13,4 C 19,3 km/h (3 Bft)
30.04.2017 18:42 14,3 C 53 % 1012,0 hPa 0,0 l/m 9,8 km/h (2 Bft) O 99 0 min 37 W/m 4,9 C 12,4 C 24,1 km/h (4 Bft)
30.04.2017 18:45 14,2 C 53 % 1011,9 hPa 0,0 l/m 9,4 km/h (2 Bft) O 98 0 min 37 W/m 4,8 C 12,5 C 25,7 km/h (4 Bft)
30.04.2017 18:48 14,1 C 53 % 1012,0 hPa 0,0 l/m 9,3 km/h (2 Bft) N-NO 25 0 min 35 W/m 4,7 C 12,5 C 24,1 km/h (4 Bft)
30.04.2017 18:51 14,1 C 54 % 1011,9 hPa 0,0 l/m 8,9 km/h (2 Bft) NO 54 0 min 35 W/m 4,9 C 12,7 C 17,7 km/h (3 Bft)
30.04.2017 18:54 14,1 C 55 % 1011,9 hPa 0,0 l/m 6,7 km/h (2 Bft) N-NO 22 0 min 35 W/m 5,2 C 13,9 C 22,5 km/h (4 Bft)
30.04.2017 18:57 14,0 C 54 % 1011,9 hPa 0,0 l/m 11,5 km/h (2 Bft) O-NO 65 0 min 35 W/m 4,8 C 11,3 C 25,7 km/h (4 Bft)
30.04.2017 19:00 13,9 C 54 % 1011,9 hPa 0,0 l/m 8,4 km/h (2 Bft) O 86 0 min 33 W/m 4,7 C 12,7 C 20,9 km/h (4 Bft)
30.04.2017 19:03 13,9 C 53 % 1011,9 hPa 0,0 l/m 9,7 km/h (2 Bft) O 88 0 min 33 W/m 4,5 C 12,0 C 17,7 km/h (3 Bft)
30.04.2017 19:06 13,8 C 52 % 1011,8 hPa 0,0 l/m 9,6 km/h (2 Bft) N 5 0 min 33 W/m 4,1 C 12,0 C 25,7 km/h (4 Bft)
30.04.2017 19:09 13,8 C 52 % 1011,8 hPa 0,0 l/m 11,0 km/h (2 Bft) O-NO 61 0 min 33 W/m 4,1 C 11,3 C 27,4 km/h (5 Bft)
30.04.2017 19:12 13,8 C 52 % 1011,8 hPa 0,0 l/m 11,6 km/h (2 Bft) SO 136 0 min 33 W/m 4,1 C 11,1 C 22,5 km/h (4 Bft)
30.04.2017 19:15 13,8 C 52 % 1011,8 hPa 0,0 l/m 7,6 km/h (2 Bft) O-NO 76 0 min 32 W/m 4,1 C 13,1 C 17,7 km/h (3 Bft)
30.04.2017 19:18 13,7 C 51 % 1011,9 hPa 0,0 l/m 10,9 km/h (2 Bft) NO 55 0 min 30 W/m 3,8 C 11,3 C 19,3 km/h (3 Bft)
30.04.2017 19:21 13,7 C 52 % 1011,9 hPa 0,0 l/m 7,8 km/h (2 Bft) O 99 0 min 30 W/m 4,0 C 12,9 C 16,1 km/h (3 Bft)
30.04.2017 19:24 13,6 C 53 % 1012,0 hPa 0,0 l/m 10,1 km/h (2 Bft) O 99 0 min 32 W/m 4,2 C 11,5 C 19,3 km/h (3 Bft)
30.04.2017 19:27 13,4 C 53 % 1011,8 hPa 0,0 l/m 9,9 km/h (2 Bft) O 86 0 min 33 W/m 4,0 C 11,4 C 20,9 km/h (4 Bft)
30.04.2017 19:30 13,3 C 54 % 1011,7 hPa 0,0 l/m 8,4 km/h (2 Bft) O-NO 72 0 min 37 W/m 4,2 C 12,1 C 19,3 km/h (3 Bft)
30.04.2017 19:33 13,2 C 55 % 1011,7 hPa 0,0 l/m 9,5 km/h (2 Bft) NO 37 0 min 39 W/m 4,4 C 11,4 C 22,5 km/h (4 Bft)
30.04.2017 19:36 13,2 C 55 % 1011,8 hPa 0,0 l/m 6,6 km/h (2 Bft) O 97 0 min 40 W/m 4,4 C 13,1 C 14,5 km/h (3 Bft)
30.04.2017 19:39 13,1 C 55 % 1011,8 hPa 0,0 l/m 10,9 km/h (2 Bft) O 79 0 min 46 W/m 4,3 C 10,6 C 20,9 km/h (4 Bft)
30.04.2017 19:42 13,0 C 56 % 1011,8 hPa 0,0 l/m 7,6 km/h (2 Bft) O-SO 106 0 min 47 W/m 4,4 C 12,2 C 16,1 km/h (3 Bft)
30.04.2017 19:45 13,0 C 55 % 1011,8 hPa 0,0 l/m 7,9 km/h (2 Bft) N-NO 28 0 min 49 W/m 4,2 C 12,1 C 22,5 km/h (4 Bft)
30.04.2017 19:48 12,9 C 56 % 1011,8 hPa 0,0 l/m 5,9 km/h (2 Bft) NO 42 0 min 49 W/m 4,3 C 12,9 C 16,1 km/h (3 Bft)
30.04.2017 19:51 12,9 C 55 % 1011,6 hPa 0,0 l/m 7,6 km/h (2 Bft) O-SO 107 0 min 44 W/m 4,1 C 12,1 C 25,7 km/h (4 Bft)
30.04.2017 19:54 12,9 C 55 % 1011,8 hPa 0,0 l/m 8,2 km/h (2 Bft) N 11 0 min 39 W/m 4,1 C 11,8 C 24,1 km/h (4 Bft)
30.04.2017 19:57 12,9 C 55 % 1011,7 hPa 0,0 l/m 7,4 km/h (2 Bft) O-SO 105 0 min 33 W/m 4,1 C 12,3 C 16,1 km/h (3 Bft)
30.04.2017 20:00 12,8 C 55 % 1011,8 hPa 0,0 l/m 7,9 km/h (2 Bft) O-NO 72 0 min 28 W/m 4,0 C 11,9 C 14,5 km/h (3 Bft)
30.04.2017 20:03 12,8 C 56 % 1011,8 hPa 0,0 l/m 9,4 km/h (2 Bft) N-NO 20 0 min 23 W/m 4,2 C 11,0 C 24,1 km/h (4 Bft)
30.04.2017 20:06 12,7 C 56 % 1011,8 hPa 0,0 l/m 9,0 km/h (2 Bft) O 84 0 min 21 W/m 4,2 C 11,1 C 17,7 km/h (3 Bft)
30.04.2017 20:09 12,7 C 56 % 1011,7 hPa 0,0 l/m 9,9 km/h (2 Bft) N-NO 17 0 min 19 W/m 4,2 C 10,6 C 20,9 km/h (4 Bft)
30.04.2017 20:12 12,6 C 56 % 1011,7 hPa 0,0 l/m 5,8 km/h (2 Bft) NO 39 0 min 19 W/m 4,1 C 12,6 C 14,5 km/h (3 Bft)
30.04.2017 20:15 12,6 C 57 % 1011,8 hPa 0,0 l/m 8,8 km/h (2 Bft) O-NO 78 0 min 16 W/m 4,3 C 11,1 C 19,3 km/h (3 Bft)
30.04.2017 20:18 12,5 C 56 % 1011,8 hPa 0,0 l/m 9,0 km/h (2 Bft) SO 129 0 min 14 W/m 4,0 C 10,9 C 24,1 km/h (4 Bft)
30.04.2017 20:21 12,4 C 57 % 1011,7 hPa 0,0 l/m 10,8 km/h (2 Bft) O 91 0 min 12 W/m 4,1 C 9,8 C 17,7 km/h (3 Bft)
30.04.2017 20:24 12,3 C 57 % 1011,8 hPa 0,0 l/m 7,9 km/h (2 Bft) N-NO 24 0 min 11 W/m 4,0 C 11,3 C 14,5 km/h (3 Bft)
30.04.2017 20:27 12,3 C 58 % 1011,8 hPa 0,0 l/m 6,9 km/h (2 Bft) NO 39 0 min 11 W/m 4,3 C 12,0 C 20,9 km/h (4 Bft)
30.04.2017 20:30 12,2 C 59 % 1011,8 hPa 0,0 l/m 9,0 km/h (2 Bft) O-NO 68 0 min 11 W/m 4,4 C 10,6 C 25,7 km/h (4 Bft)
30.04.2017 20:33 12,1 C 58 % 1011,8 hPa 0,0 l/m 9,8 km/h (2 Bft) NO 49 0 min 9 W/m 4,1 C 10,0 C 20,9 km/h (4 Bft)
30.04.2017 20:36 12,1 C 58 % 1011,9 hPa 0,0 l/m 8,8 km/h (2 Bft) N-NO 26 0 min 9 W/m 4,1 C 10,6 C 19,3 km/h (3 Bft)
30.04.2017 20:39 12,1 C 58 % 1011,8 hPa 0,0 l/m 7,6 km/h (2 Bft) O-NO 59 0 min 7 W/m 4,1 C 11,3 C 14,5 km/h (3 Bft)
30.04.2017 20:42 12,1 C 59 % 1011,8 hPa 0,0 l/m 7,5 km/h (2 Bft) O 88 0 min 5 W/m 4,3 C 11,4 C 20,9 km/h (4 Bft)
30.04.2017 20:45 12,0 C 59 % 1011,9 hPa 0,0 l/m 8,7 km/h (2 Bft) O-SO 117 0 min 5 W/m 4,2 C 10,5 C 20,9 km/h (4 Bft)
30.04.2017 20:48 11,9 C 59 % 1011,8 hPa 0,0 l/m 9,1 km/h (2 Bft) NO 43 0 min 0 W/m 4,1 C 10,2 C 20,9 km/h (4 Bft)
30.04.2017 20:51 11,8 C 59 % 1011,9 hPa 0,0 l/m 9,4 km/h (2 Bft) NO 40 0 min 0 W/m 4,1 C 9,9 C 19,3 km/h (3 Bft)
30.04.2017 20:54 11,8 C 59 % 1012,0 hPa 0,0 l/m 10,1 km/h (2 Bft) O-SO 118 0 min 0 W/m 4,1 C 9,5 C 19,3 km/h (3 Bft)
30.04.2017 20:57 11,7 C 59 % 1012,0 hPa 0,0 l/m 11,0 km/h (2 Bft) O-SO 123 0 min 0 W/m 4,0 C 9,0 C 22,5 km/h (4 Bft)
30.04.2017 21:00 11,7 C 60 % 1012,0 hPa 0,0 l/m 6,3 km/h (2 Bft) O-NO 59 0 min 0 W/m 4,2 C 11,7 C 17,7 km/h (3 Bft)
30.04.2017 21:03 11,6 C 61 % 1012,0 hPa 0,0 l/m 7,0 km/h (2 Bft) O 88 0 min 0 W/m 4,3 C 11,2 C 19,3 km/h (3 Bft)
30.04.2017 21:06 11,5 C 61 % 1012,1 hPa 0,0 l/m 7,1 km/h (2 Bft) NO 37 0 min 0 W/m 4,2 C 11,0 C 20,9 km/h (4 Bft)
30.04.2017 21:09 11,4 C 61 % 1012,1 hPa 0,0 l/m 8,8 km/h (2 Bft) NO 34 0 min 0 W/m 4,2 C 9,8 C 19,3 km/h (3 Bft)
30.04.2017 21:12 11,4 C 60 % 1012,1 hPa 0,0 l/m 9,1 km/h (2 Bft) SO 136 0 min 0 W/m 3,9 C 9,6 C 19,3 km/h (3 Bft)
30.04.2017 21:15 11,4 C 61 % 1012,1 hPa 0,0 l/m 8,4 km/h (2 Bft) NO 44 0 min 0 W/m 4,2 C 10,1 C 20,9 km/h (4 Bft)
30.04.2017 21:18 11,4 C 61 % 1012,1 hPa 0,0 l/m 8,0 km/h (2 Bft) O 90 0 min 0 W/m 4,2 C 10,3 C 19,3 km/h (3 Bft)
30.04.2017 21:21 11,4 C 60 % 1012,2 hPa 0,0 l/m 7,6 km/h (2 Bft) O-NO 61 0 min 0 W/m 3,9 C 10,6 C 19,3 km/h (3 Bft)
30.04.2017 21:24 11,3 C 61 % 1012,2 hPa 0,0 l/m 6,4 km/h (2 Bft) S-SW 210 0 min 0 W/m 4,1 C 11,3 C 14,5 km/h (3 Bft)
30.04.2017 21:27 11,3 C 62 % 1012,2 hPa 0,0 l/m 7,8 km/h (2 Bft) NO 39 0 min 0 W/m 4,3 C 10,3 C 20,9 km/h (4 Bft)
30.04.2017 21:30 11,2 C 63 % 1012,2 hPa 0,0 l/m 6,0 km/h (2 Bft) NO 51 0 min 0 W/m 4,4 C 11,2 C 12,9 km/h (3 Bft)
30.04.2017 21:33 11,1 C 64 % 1012,2 hPa 0,0 l/m 8,3 km/h (2 Bft) S-SO 152 0 min 0 W/m 4,6 C 9,8 C 17,7 km/h (3 Bft)
30.04.2017 21:36 10,9 C 64 % 1012,3 hPa 0,0 l/m 6,8 km/h (2 Bft) O-NO 57 0 min 0 W/m 4,4 C 10,6 C 12,9 km/h (3 Bft)
30.04.2017 21:39 10,9 C 64 % 1012,2 hPa 0,0 l/m 9,2 km/h (2 Bft) O-SO 114 0 min 0 W/m 4,4 C 9,0 C 20,9 km/h (4 Bft)
30.04.2017 21:42 10,9 C 64 % 1012,3 hPa 0,0 l/m 7,9 km/h (2 Bft) N-NO 24 0 min 0 W/m 4,4 C 9,9 C 22,5 km/h (4 Bft)
30.04.2017 21:45 10,9 C 64 % 1012,3 hPa 0,0 l/m 9,0 km/h (2 Bft) NO 48 0 min 0 W/m 4,4 C 9,2 C 17,7 km/h (3 Bft)
30.04.2017 21:48 10,8 C 65 % 1012,4 hPa 0,0 l/m 6,2 km/h (2 Bft) O 96 0 min 0 W/m 4,5 C 10,8 C 19,3 km/h (3 Bft)
30.04.2017 21:51 10,7 C 65 % 1012,3 hPa 0,0 l/m 7,2 km/h (2 Bft) NO 37 0 min 0 W/m 4,4 C 10,1 C 14,5 km/h (3 Bft)
30.04.2017 21:54 10,7 C 66 % 1012,3 hPa 0,0 l/m 8,0 km/h (2 Bft) NO 38 0 min 0 W/m 4,6 C 9,6 C 16,1 km/h (3 Bft)
30.04.2017 21:57 10,6 C 66 % 1012,4 hPa 0,0 l/m 9,4 km/h (2 Bft) W-NW 303 0 min 0 W/m 4,5 C 8,6 C 20,9 km/h (4 Bft)
30.04.2017 22:00 10,6 C 66 % 1012,3 hPa 0,0 l/m 8,4 km/h (2 Bft) N 5 0 min 0 W/m 4,5 C 9,2 C 19,3 km/h (3 Bft)
30.04.2017 22:03 10,5 C 66 % 1012,2 hPa 0,0 l/m 8,3 km/h (2 Bft) NO 53 0 min 0 W/m 4,4 C 9,2 C 17,7 km/h (3 Bft)
30.04.2017 22:06 10,4 C 66 % 1012,3 hPa 0,0 l/m 7,4 km/h (2 Bft) O 80 0 min 0 W/m 4,3 C 9,7 C 14,5 km/h (3 Bft)
30.04.2017 22:09 10,4 C 66 % 1012,3 hPa 0,0 l/m 3,4 km/h (1 Bft) NO 45 0 min 0 W/m 4,3 C 10,4 C 6,4 km/h (2 Bft)
30.04.2017 22:12 10,3 C 66 % 1012,4 hPa 0,0 l/m 8,8 km/h (2 Bft) O 91 0 min 0 W/m 4,2 C 8,6 C 19,3 km/h (3 Bft)
30.04.2017 22:15 10,3 C 67 % 1012,4 hPa 0,0 l/m 6,5 km/h (2 Bft) O 88 0 min 0 W/m 4,4 C 10,3 C 12,9 km/h (3 Bft)
30.04.2017 22:18 10,2 C 67 % 1012,4 hPa 0,0 l/m 6,2 km/h (2 Bft) O 88 0 min 0 W/m 4,4 C 10,2 C 12,9 km/h (3 Bft)
30.04.2017 22:21 10,2 C 66 % 1012,4 hPa 0,0 l/m 7,5 km/h (2 Bft) NO 51 0 min 0 W/m 4,1 C 9,4 C 22,5 km/h (4 Bft)
30.04.2017 22:24 10,2 C 66 % 1012,4 hPa 0,0 l/m 7,4 km/h (2 Bft) N 5 0 min 0 W/m 4,1 C 9,5 C 19,3 km/h (3 Bft)
30.04.2017 22:27 10,1 C 67 % 1012,4 hPa 0,0 l/m 6,1 km/h (2 Bft) O-NO 62 0 min 0 W/m 4,3 C 10,1 C 16,1 km/h (3 Bft)
30.04.2017 22:30 10,1 C 67 % 1012,4 hPa 0,0 l/m 7,2 km/h (2 Bft) O 88 0 min 0 W/m 4,3 C 9,5 C 17,7 km/h (3 Bft)
30.04.2017 22:33 10,0 C 67 % 1012,4 hPa 0,0 l/m 6,3 km/h (2 Bft) N-NO 26 0 min 0 W/m 4,2 C 10,0 C 12,9 km/h (3 Bft)
30.04.2017 22:36 9,9 C 67 % 1012,5 hPa 0,0 l/m 6,0 km/h (2 Bft) O-NO 78 0 min 0 W/m 4,1 C 9,9 C 14,5 km/h (3 Bft)
30.04.2017 22:39 9,9 C 67 % 1012,4 hPa 0,0 l/m 7,8 km/h (2 Bft) SO 126 0 min 0 W/m 4,1 C 8,9 C 19,3 km/h (3 Bft)
30.04.2017 22:42 9,9 C 67 % 1012,4 hPa 0,0 l/m 7,9 km/h (2 Bft) NO 42 0 min 0 W/m 4,1 C 8,8 C 19,3 km/h (3 Bft)
30.04.2017 22:45 9,9 C 67 % 1012,5 hPa 0,0 l/m 8,5 km/h (2 Bft) O-NO 72 0 min 0 W/m 4,1 C 8,4 C 19,3 km/h (3 Bft)
30.04.2017 22:48 9,9 C 67 % 1012,5 hPa 0,0 l/m 7,2 km/h (2 Bft) O 88 0 min 0 W/m 4,1 C 9,3 C 22,5 km/h (4 Bft)
30.04.2017 22:51 9,9 C 68 % 1012,5 hPa 0,0 l/m 6,2 km/h (2 Bft) W 277 0 min 0 W/m 4,3 C 9,9 C 14,5 km/h (3 Bft)
30.04.2017 22:54 9,8 C 68 % 1012,5 hPa 0,0 l/m 5,5 km/h (2 Bft) N-NO 26 0 min 0 W/m 4,2 C 9,8 C 12,9 km/h (3 Bft)
30.04.2017 22:57 9,7 C 68 % 1012,5 hPa 0,0 l/m 6,8 km/h (2 Bft) NO 40 0 min 0 W/m 4,1 C 9,4 C 14,5 km/h (3 Bft)
30.04.2017 23:00 9,7 C 68 % 1012,5 hPa 0,0 l/m 6,1 km/h (2 Bft) O-NO 65 0 min 0 W/m 4,1 C 9,7 C 12,9 km/h (3 Bft)
30.04.2017 23:03 9,6 C 69 % 1012,5 hPa 0,0 l/m 8,4 km/h (2 Bft) O 84 0 min 0 W/m 4,2 C 8,2 C 17,7 km/h (3 Bft)
30.04.2017 23:06 9,6 C 68 % 1012,5 hPa 0,0 l/m 8,6 km/h (2 Bft) NO 50 0 min 0 W/m 4,0 C 8,0 C 17,7 km/h (3 Bft)
30.04.2017 23:09 9,7 C 68 % 1012,5 hPa 0,0 l/m 7,5 km/h (2 Bft) NO 38 0 min 0 W/m 4,1 C 8,9 C 16,1 km/h (3 Bft)
30.04.2017 23:12 9,7 C 68 % 1012,5 hPa 0,0 l/m 7,5 km/h (2 Bft) N-NO 24 0 min 0 W/m 4,1 C 8,9 C 16,1 km/h (3 Bft)
30.04.2017 23:15 9,7 C 68 % 1012,5 hPa 0,0 l/m 7,7 km/h (2 Bft) O-SO 116 0 min 0 W/m 4,1 C 8,7 C 19,3 km/h (3 Bft)
30.04.2017 23:18 9,6 C 69 % 1012,4 hPa 0,0 l/m 5,0 km/h (1 Bft) O-SO 107 0 min 0 W/m 4,2 C 9,6 C 12,9 km/h (3 Bft)
30.04.2017 23:21 9,4 C 69 % 1012,5 hPa 0,0 l/m 6,6 km/h (2 Bft) O-NO 67 0 min 0 W/m 4,0 C 9,3 C 16,1 km/h (3 Bft)
30.04.2017 23:24 9,4 C 69 % 1012,4 hPa 0,0 l/m 5,8 km/h (2 Bft) SO 145 0 min 0 W/m 4,0 C 9,4 C 11,3 km/h (2 Bft)
30.04.2017 23:27 9,3 C 70 % 1012,4 hPa 0,0 l/m 5,6 km/h (2 Bft) N-NO 23 0 min 0 W/m 4,1 C 9,3 C 14,5 km/h (3 Bft)
30.04.2017 23:30 9,3 C 71 % 1012,5 hPa 0,0 l/m 8,1 km/h (2 Bft) NO 36 0 min 0 W/m 4,3 C 8,0 C 20,9 km/h (4 Bft)
30.04.2017 23:33 9,3 C 70 % 1012,5 hPa 0,0 l/m 5,4 km/h (2 Bft) NO 44 0 min 0 W/m 4,1 C 9,3 C 16,1 km/h (3 Bft)
30.04.2017 23:36 9,2 C 71 % 1012,5 hPa 0,0 l/m 7,7 km/h (2 Bft) O-NO 61 0 min 0 W/m 4,2 C 8,2 C 20,9 km/h (4 Bft)
30.04.2017 23:39 9,2 C 71 % 1012,5 hPa 0,0 l/m 7,5 km/h (2 Bft) N-NO 13 0 min 0 W/m 4,2 C 8,4 C 17,7 km/h (3 Bft)
30.04.2017 23:42 9,2 C 71 % 1012,6 hPa 0,0 l/m 8,0 km/h (2 Bft) O-NO 65 0 min 0 W/m 4,2 C 8,0 C 29,0 km/h (5 Bft)
30.04.2017 23:45 9,1 C 71 % 1012,6 hPa 0,0 l/m 6,4 km/h (2 Bft) NO 50 0 min 0 W/m 4,1 C 9,1 C 25,7 km/h (4 Bft)
30.04.2017 23:48 9,1 C 71 % 1012,5 hPa 0,0 l/m 7,5 km/h (2 Bft) N-NO 32 0 min 0 W/m 4,1 C 8,3 C 17,7 km/h (3 Bft)
30.04.2017 23:51 9,0 C 71 % 1012,5 hPa 0,0 l/m 5,6 km/h (2 Bft) NO 49 0 min 0 W/m 4,0 C 9,0 C 11,3 km/h (2 Bft)
30.04.2017 23:54 9,0 C 72 % 1012,6 hPa 0,0 l/m 8,5 km/h (2 Bft) S-SW 196 0 min 0 W/m 4,2 C 7,5 C 17,7 km/h (3 Bft)
30.04.2017 23:57 9,0 C 72 % 1012,6 hPa 0,0 l/m 6,2 km/h (2 Bft) N 5 0 min 0 W/m 4,2 C 9,0 C 14,5 km/h (3 Bft)
_ Min-Zeit 05:27 15:51 19:51 - 03:00 - - - - 05:30 05:30 03:24
Minimum _ 3,6 C 47 % 1011,6 hPa - 0,4 km/h (0 Bft) - - - - 2,6 C 3,6 C 1,6 km/h (1 Bft)
_ Max-Zeit 15:51 05:33 06:42 00:00 14:15 - - 08:15 13:39 13:21 16:06 16:48
Maximum _ 16,0 C 94 % 1018,7 hPa 0,0 l/m 15,9 km/h
O-NO (3 Bft)
- - 3 min 842 W/m 6,7 C 15,5 C 38,6 km/h
O (6 Bft)
Durchschnitt _ 9,8 C 71 % 1015,8 hPa #0,0 l/m 6,6 km/h (2 Bft) O - #9:24 h 391 W/m 4,2 C 8,9 C 15,9 km/h (3 Bft)
2017 Cux-Wetter.de -Die Nutzung der Wetterdaten nur mit ausdrcklicher Genehmigung